GFSMA_prec_cloud_003.txt.gz
Cloud_Cover
92 66 14 3 19 47 100 86 100 74 74 95 100 3 3 0 0 0 22 81 100 84 5 30 37 100 100 100 100 100 100 76 0 0 1 0 5 2 5 5 40 88 16
93 22 100 100 100 52 100 36 56 8 66 92 26 20 0 0 2 0 0 2 5 69 91 90 100 100 100 100 100 100 100 100 94 0 0 0 2 5 4 3 10 42 5
14 5 49 81 96 8 1 50 96 100 9 0 2 0 0 9 3 0 0 0 1 5 13 94 18 100 91 100 100 100 100 100 100 100 0 3 4 5 5 5 5 94 5
13 31 38 83 100 81 100 92 20 100 32 0 1 0 1 0 9 2 15 0 2 0 4 5 83 99 100 51 100 100 100 100 100 100 100 84 5 5 5 5 3 58 69
94 56 58 100 96 31 88 56 2 90 0 0 0 1 13 10 2 27 0 30 9 17 0 0 5 12 44 100 100 100 100 100 100 100 100 100 50 0 1 0 1 5 26
26 31 80 32 0 89 36 71 79 0 0 6 0 0 6 26 13 8 5 5 5 20 64 14 8 17 5 93 100 100 100 100 100 100 100 100 100 16 0 0 0 3 5
16 8 0 100 13 12 100 17 0 0 0 42 0 83 17 4 13 5 9 3 5 0 5 0 14 52 31 5 23 100 100 100 100 100 100 100 100 100 8 0 0 0 5
99 28 10 5 7 76 0 7 0 0 1 22 8 3 90 74 93 78 0 2 7 8 0 0 0 0 43 28 5 5 100 100 100 100 100 100 100 100 100 12 0 0 1
36 10 18 2 23 0 0 0 0 3 4 41 0 10 19 96 64 49 6 1 1 0 20 3 0 0 0 0 4 5 16 100 100 100 100 100 100 100 100 100 11 0 0
26 28 16 34 27 0 0 0 0 5 1 11 23 0 0 5 5 90 100 26 5 5 0 0 0 1 0 0 0 3 5 10 100 100 100 100 100 100 100 100 100 37 2
9 1 4 24 9 0 1 5 0 0 14 0 5 50 14 5 5 63 99 98 98 57 6 0 0 0 8 0 0 0 4 5 60 100 100 100 100 100 100 100 100 100 7
0 0 0 37 0 17 31 5 6 0 5 3 3 49 71 86 82 96 43 91 100 97 25 22 3 0 13 4 0 0 0 4 21 19 99 100 100 100 100 100 100 100 100
0 0 0 11 4 30 69 65 1 24 5 14 6 16 100 100 52 68 100 100 100 100 89 9 10 25 1 68 2 0 0 0 4 6 5 53 100 100 100 100 100 100 100
0 0 1 5 98 95 26 5 5 100 96 84 93 73 100 99 100 99 100 100 100 99 100 100 100 22 52 0 40 1 0 0 0 0 5 5 61 99 100 100 100 100 100
0 0 0 4 50 10 97 96 31 18 100 100 65 92 97 100 100 100 100 100 100 100 100 100 100 100 42 60 31 0 0 0 0 0 0 4 5 5 15 100 100 100 100
2 1 3 55 16 5 100 81 95 37 61 93 99 100 98 96 100 100 100 100 97 98 100 100 100 100 78 57 33 34 3 2 0 0 5 2 2 0 2 4 84 92 58
0 3 5 79 84 29 74 52 14 29 100 100 84 91 93 100 100 100 100 100 100 100 100 100 100 100 100 74 98 73 98 95 14 5 5 2 4 0 0 0 0 8 5
3 5 5 26 6 57 5 18 46 37 76 47 98 100 100 100 93 100 100 100 100 100 100 100 100 100 100 100 100 100 98 16 99 100 100 78 0 0 0 0 0 0 0
5 5 5 0 5 19 17 92 100 89 100 72 48 72 98 100 100 100 100 100 100 100 100 100 100 100 100 100 98 61 91 100 100 100 72 25 0 0 0 0 0 0 0
71 10 0 0 0 0 9 51 79 100 100 96 100 100 100 100 100 100 100 100 100 100 100 100 100 100 100 100 52 95 100 100 100 74 49 4 0 3 0 0 0 0 0
5 5 5 13 66 98 5 4 9 5 44 98 95 100 60 95 100 98 100 100 100 100 100 100 100 100 100 100 100 100 100 5 2 100 0 0 16 0 0 0 0 0 2
5 5 24 97 100 66 0 33 100 100 5 30 60 100 95 85 95 100 100 100 100 100 100 100 100 100 100 100 100 100 16 5 0 0 0 0 0 0 0 0 0 0 0
20 60 17 76 88 56 0 34 100 100 12 90 100 100 72 51 90 99 86 100 100 100 100 100 100 100 100 88 2 2 4 0 0 0 0 0 0 0 0 0 0 0 0
71 96 100 88 5 1 3 76 100 98 36 100 80 81 8 8 41 56 100 95 95 100 100 97 100 100 61 6 2 1 0 0 0 0 19 6 0 0 0 0 0 0 0
100 100 87 48 5 61 91 75 100 85 95 100 100 15 30 62 96 100 98 100 100 100 100 58 44 0 0 0 3 0 0 0 0 2 0 0 0 0 0 0 0 0 0
100 100 98 95 100 84 93 13 16 99 100 100 25 6 5 11 7 6 5 5 5 4 11 3 15 16 0 0 0 0 0 78 84 18 0 0 0 0 3 74 86 1 26

GFSMA_prec_cloud_006.txt.gz
Cloud_Cover
71 73 4 16 6 88 3 0 58 100 31 37 99 62 0 0 0 0 0 0 4 5 6 13 73 100 100 95 100 100 98 98 99 2 6 3 0 5 6 5 55 100 94
5 87 4 49 85 36 0 67 0 4 95 100 100 6 3 91 6 23 0 0 0 1 70 31 31 97 100 100 72 49 97 93 75 64 13 0 0 0 5 5 36 84 84
6 4 0 0 80 42 25 72 78 9 100 71 16 0 98 15 5 5 3 47 0 0 0 5 39 66 92 87 98 97 99 100 100 100 100 98 5 1 0 4 5 28 100
0 1 8 14 100 100 15 94 50 1 20 12 26 76 5 47 9 38 98 97 1 0 0 0 4 43 7 7 88 100 100 100 100 98 100 100 100 68 0 0 1 5 58
5 100 22 3 84 16 1 67 48 94 5 0 0 99 86 4 24 83 20 95 36 24 55 0 0 0 4 64 84 100 100 100 100 100 100 100 100 100 50 0 0 0 5
12 5 9 43 0 0 0 2 80 5 2 0 0 0 5 7 33 0 1 6 4 94 99 100 6 0 0 2 31 98 100 100 100 100 100 100 100 100 100 3 0 0 5
0 0 0 2 66 0 86 100 0 0 3 2 0 76 78 100 30 5 2 3 45 42 41 5 26 2 2 0 3 8 100 100 100 100 100 100 100 100 100 95 0 1 1
0 80 0 0 92 98 0 0 0 0 22 17 0 0 72 71 100 69 5 5 5 71 16 12 10 7 0 0 0 0 1 100 100 100 100 100 100 100 100 100 86 2 0
0 49 0 0 0 14 2 0 0 0 4 5 37 0 20 67 56 90 77 8 5 44 96 18 5 90 15 0 0 0 0 5 100 100 100 100 100 100 100 100 97 100 2
0 0 0 0 0 0 0 0 0 0 0 26 82 5 3 5 60 62 69 100 25 68 100 95 61 67 96 47 0 0 0 5 5 83 100 100 100 100 100 100 100 100 100
0 7 0 0 0 0 0 5 5 0 0 0 0 96 17 5 21 90 100 100 100 47 32 91 21 20 63 51 94 2 0 0 5 10 82 100 100 100 100 100 100 100 100
0 0 8 0 0 0 0 5 5 4 2 1 2 5 9 43 48 27 84 100 99 100 96 74 74 5 51 89 91 12 31 0 0 8 18 57 100 100 100 100 100 100 100
0 0 0 0 0 5 5 5 4 5 4 4 1 4 38 64 28 40 74 99 100 100 100 100 59 18 85 5 5 81 89 5 0 0 1 18 85 100 100 100 100 100 100
0 0 0 1 5 5 5 5 64 5 5 5 4 5 49 91 86 92 100 99 100 100 100 86 100 93 99 100 45 6 17 98 93 73 4 0 3 5 51 100 100 100 100
0 0 0 0 5 45 8 2 5 85 17 5 8 5 81 100 100 100 100 100 100 100 30 98 100 100 100 100 100 100 100 30 10 3 4 4 0 0 5 5 90 100 100
0 4 2 0 19 14 1 0 2 1 4 90 93 38 26 30 43 62 98 95 100 100 100 100 100 100 100 100 100 100 100 100 88 8 41 72 3 0 0 1 1 46 100
0 0 0 0 0 0 0 0 0 0 0 1 2 5 5 19 5 6 59 95 87 100 100 100 100 100 100 100 100 100 100 100 100 96 96 35 0 0 1 52 3 0 0
0 0 0 0 0 0 0 0 1 0 0 0 6 5 54 96 100 100 100 80 99 100 100 100 100 100 100 100 100 100 100 100 100 98 12 5 40 17 91 0 0 0 0
0 0 0 0 0 0 4 5 5 2 1 3 0 31 5 34 100 100 98 14 37 100 100 100 100 100 100 100 100 100 100 100 100 76 26 35 100 99 5 2 0 0 0
0 0 0 0 5 1 3 5 4 4 0 0 0 99 5 13 59 35 96 86 50 100 100 100 100 100 100 100 96 100 100 100 100 100 100 100 100 100 20 0 0 0 0
2 0 4 4 5 5 10 59 25 5 4 4 28 100 28 11 73 92 36 99 93 99 98 94 100 100 100 100 100 100 100 100 100 100 100 100 32 1 0 0 0 0 0
50 64 54 5 65 100 5 5 5 5 68 100 76 100 7 37 100 88 92 32 28 5 7 60 96 100 100 100 100 100 100 100 100 100 22 100 0 0 0 0 0 0 0
58 63 7 55 18 95 86 5 2 30 88 100 99 100 74 69 100 87 19 35 68 92 98 21 62 100 100 100 100 100 100 100 79 16 0 0 0 10 0 0 0 0 35
80 84 63 72 83 33 100 7 3 84 100 100 11 85 82 100 100 7 31 59 83 100 69 20 19 46 95 87 70 48 4 1 0 0 0 0 0 0 0 0 0 0 0
100 100 100 92 61 6 100 8 53 100 100 49 97 98 47 33 48 46 12 5 5 3 4 5 49 99 68 7 0 0 0 0 4 0 0 0 0 5 0 0 0 0 0
69 31 97 100 94 57 90 71 52 67 51 81 87 14 13 5 5 5 27 86 26 5 4 2 0 3 0 0 0 16 0 0 0 0 0 0 0 0 0 0 0 0 0

GFSMA_prec_cloud_009.txt.gz
Cloud_Cover
30 4 5 31 5 21 1 22 85 97 9 91 72 99 5 25 4 0 0 0 0 1 5 100 100 100 100 68 82 98 100 76 14 0 1 0 0 0 0 0 5 31 5
4 3 11 28 89 33 100 21 34 87 53 30 5 81 59 97 21 26 2 0 0 0 2 98 24 100 100 100 100 30 95 100 99 70 1 0 0 0 3 0 4 4 5
4 5 7 4 18 2 6 0 36 0 6 7 0 0 28 51 68 5 89 8 0 0 0 0 90 100 100 100 100 99 100 100 99 97 33 98 10 16 0 0 1 5 5
15 6 58 3 2 76 12 37 0 35 45 0 0 35 6 4 68 100 78 29 43 6 0 0 0 3 15 88 100 100 100 96 100 99 100 75 45 100 20 3 0 4 5
19 4 2 3 10 30 19 0 12 71 72 0 0 5 0 1 20 46 16 80 82 73 46 0 0 0 0 81 86 100 100 100 100 91 100 99 75 97 100 31 4 0 0
0 0 0 1 16 6 0 0 58 0 0 0 0 0 0 0 0 4 2 4 42 100 100 98 4 0 0 0 3 69 100 100 100 100 100 100 100 94 100 96 5 0 2
0 0 0 0 0 60 0 0 0 0 0 0 0 35 51 65 22 1 0 2 5 11 96 100 63 42 99 0 0 3 24 73 100 100 100 100 100 100 73 33 25 1 0
0 0 0 0 0 78 66 0 0 0 0 0 1 0 2 57 69 87 100 60 5 38 38 97 100 94 78 1 0 0 4 5 93 100 100 100 100 100 99 100 88 79 4
0 0 0 0 0 0 0 0 0 0 0 0 0 0 19 1 90 44 30 100 100 71 19 100 100 96 90 65 20 1 0 3 14 100 100 100 100 100 100 100 77 100 62
0 0 0 0 0 0 0 0 0 0 0 0 0 0 4 3 5 84 76 26 11 100 100 80 100 100 94 93 96 46 4 0 4 6 94 100 100 100 100 100 100 100 100
0 0 0 0 0 0 0 0 0 0 0 0 0 0 0 0 9 13 100 100 96 23 95 100 80 100 99 100 56 100 10 99 10 0 4 15 99 100 100 100 100 100 100
0 0 0 0 0 0 0 3 2 1 5 2 0 0 0 0 0 3 8 58 100 100 100 98 100 100 100 43 72 95 87 100 85 1 0 0 5 76 100 100 100 100 100
0 0 0 0 2 5 5 5 5 0 0 5 5 0 5 2 0 2 4 7 16 61 66 100 100 81 100 100 97 28 95 100 100 75 6 87 2 0 54 100 100 100 100
0 0 0 0 3 21 1 0 0 0 0 1 5 3 4 4 5 5 5 6 4 1 52 66 100 100 99 93 100 100 100 95 100 100 95 100 5 5 3 1 60 100 100
0 0 0 0 2 0 0 0 3 5 5 0 0 0 0 0 5 5 5 18 91 75 72 91 56 100 100 100 80 99 100 100 100 100 100 99 28 92 100 92 0 2 89
0 0 0 0 0 0 3 0 5 5 5 0 0 0 0 0 0 5 91 12 5 31 34 20 8 12 100 100 100 100 100 100 100 100 100 100 99 92 16 73 39 4 0
0 0 0 0 0 0 11 15 4 5 3 2 0 0 0 0 2 4 8 94 41 75 6 14 5 5 10 87 100 100 100 100 100 91 66 24 66 86 99 89 46 76 5
0 0 0 0 0 0 0 5 5 5 5 1 0 2 10 1 81 5 5 62 89 56 21 5 30 94 85 98 100 100 100 100 100 100 100 100 100 100 100 95 4 1 1
0 0 0 0 0 0 0 5 5 3 5 5 0 80 100 54 71 6 12 82 58 35 43 41 66 22 18 98 41 69 80 97 100 100 100 100 100 100 100 100 100 100 21
0 0 0 0 5 5 5 5 5 5 3 2 1 70 100 94 66 82 30 99 100 100 100 100 32 24 5 5 45 33 44 46 98 94 100 100 100 100 100 97 88 89 51
0 0 0 0 0 4 25 5 33 5 42 1 2 74 100 100 70 94 20 88 100 100 100 78 91 5 5 5 12 79 81 100 93 73 19 100 100 100 100 98 54 57 61
0 5 5 0 0 0 5 5 5 5 17 3 1 88 100 100 11 97 27 100 100 100 96 56 96 61 7 6 5 5 5 5 59 100 100 100 99 100 100 67 60 100 100
2 5 7 66 13 8 17 6 0 0 5 0 48 97 83 100 18 79 79 93 95 57 58 78 36 5 6 7 5 5 4 3 25 36 5 5 4 1 2 0 0 0 0
4 0 79 100 92 81 94 98 1 0 3 0 86 100 77 58 100 100 90 99 100 100 78 8 5 39 14 3 0 0 0 0 0 0 0 3 0 0 0 0 0 0 0
43 100 100 100 100 100 100 100 95 16 62 99 100 100 86 62 100 38 39 72 88 97 35 23 38 5 0 3 5 0 0 0 0 0 0 0 0 0 0 0 0 0 0
100 100 100 100 100 100 100 88 83 72 100 100 41 5 72 100 15 54 5 5 13 90 60 5 5 3 3 36 1 0 1 1 55 5 5 0 4 0 0 0 0 0 0

GFSMA_prec_cloud_012.txt.gz
Cloud_Cover
0 1 4 0 3 1 1 21 99 52 84 3 5 5 6 92 4 2 5 4 0 0 62 100 100 100 100 40 80 96 29 61 93 18 9 1 6 0 1 0 4 5 7
0 0 5 1 5 2 45 81 0 99 34 67 54 1 79 48 41 28 5 8 10 4 0 63 100 100 91 51 83 90 54 100 100 51 14 0 1 3 0 0 0 5 5
12 5 2 0 0 2 4 28 10 6 27 10 1 0 32 0 83 16 68 46 6 14 1 0 90 100 100 97 63 100 100 100 100 92 96 30 2 0 1 0 1 1 4
2 0 1 5 0 0 3 0 0 10 100 83 0 44 11 0 73 99 19 6 5 5 5 1 0 4 2 28 99 100 100 100 100 100 100 88 99 23 100 61 5 4 5
0 0 0 0 0 47 0 0 0 7 53 0 0 2 3 6 1 0 5 83 31 10 15 5 0 3 0 0 0 94 100 100 100 100 100 100 100 98 99 100 49 2 0
0 0 0 0 0 0 0 0 57 0 0 0 0 0 1 18 0 0 0 4 18 75 99 100 5 4 1 0 0 4 100 100 100 100 100 100 100 100 100 100 51 56 4
0 0 0 0 0 0 0 0 0 0 0 0 0 0 5 8 15 5 0 2 5 0 3 5 31 44 63 3 0 0 4 44 100 100 100 100 100 100 100 100 100 100 100
0 0 0 0 0 0 0 0 0 0 0 0 0 0 0 83 99 33 5 51 58 5 5 1 27 100 100 29 4 2 0 1 57 100 100 100 100 100 100 100 100 100 100
0 0 0 0 0 0 0 0 0 0 0 0 1 0 0 0 26 43 74 100 100 97 59 43 7 6 96 100 77 4 2 4 2 38 100 100 100 100 100 100 100 100 100
14 0 0 0 0 0 0 0 0 0 0 0 0 0 0 0 0 2 58 41 100 100 100 100 53 5 8 100 100 24 89 5 5 4 5 81 100 100 100 100 100 97 100
0 0 0 0 0 0 0 0 0 0 0 4 5 0 0 4 0 4 1 0 8 34 97 100 100 100 32 5 75 100 83 100 5 13 25 2 51 100 100 100 100 100 100
0 0 0 0 0 0 0 0 0 0 0 0 0 0 0 1 1 4 5 5 34 100 65 56 97 100 100 100 100 100 100 100 99 81 52 100 10 4 50 100 100 100 100
7 0 0 0 0 0 0 0 0 1 3 0 0 0 0 0 0 3 5 5 0 4 62 100 10 19 64 76 97 100 100 100 100 100 98 88 95 24 96 49 52 100 100
0 0 0 0 0 0 0 0 0 3 0 0 0 0 0 0 0 0 0 5 5 5 5 5 5 44 29 60 97 100 100 100 100 100 100 100 100 31 6 93 85 6 92
0 0 0 0 0 0 0 0 2 5 3 0 0 0 0 0 0 2 5 5 24 19 21 5 5 2 5 46 15 5 5 97 100 100 100 100 100 100 100 81 79 42 9
0 0 0 0 0 0 0 0 5 5 5 5 1 0 0 0 0 1 5 5 5 68 72 14 16 5 1 2 68 98 62 35 69 89 99 100 100 100 100 100 100 91 76
0 0 0 0 0 0 0 0 5 5 5 5 5 0 0 0 2 0 5 5 5 5 7 68 79 34 5 5 7 5 23 99 87 13 48 96 100 100 100 100 84 42 43
0 0 0 0 0 0 0 0 5 5 5 5 5 1 0 1 5 97 8 65 5 5 5 22 10 10 39 62 5 7 5 5 72 100 98 43 46 100 100 100 100 100 98
0 0 0 0 5 5 5 0 5 5 5 5 4 5 0 8 30 73 98 58 32 45 43 100 85 53 100 99 6 5 5 5 5 5 62 82 96 65 99 98 100 100 100
0 0 0 0 4 5 4 5 68 48 6 32 4 0 0 0 12 5 100 18 22 8 98 100 100 100 100 71 5 5 5 5 5 5 5 96 100 96 85 91 86 100 100
0 0 0 5 0 0 3 43 94 100 95 5 0 0 2 4 78 0 78 5 5 8 100 100 100 88 47 69 10 12 5 5 5 5 3 1 1 2 81 100 100 100 100
0 0 0 5 5 86 100 100 100 99 100 18 2 0 0 60 54 42 100 80 34 10 98 53 56 24 16 99 100 88 5 0 0 1 0 0 0 0 0 0 0 24 98
12 1 0 3 71 100 100 100 100 33 72 68 1 0 0 93 45 54 80 22 5 40 98 100 76 69 83 87 5 4 0 0 1 3 0 0 0 0 0 0 0 0 0
29 2 8 0 96 100 100 100 100 100 100 58 7 7 2 91 92 56 5 34 61 34 77 100 100 88 84 78 20 5 4 0 0 1 0 0 0 0 0 0 0 0 0
47 20 5 4 99 100 100 100 100 100 100 20 0 1 54 87 97 22 74 98 5 47 66 81 98 38 36 34 14 35 22 0 0 1 2 0 0 2 2 2 0 0 0
44 51 38 67 56 91 100 100 100 34 3 2 31 92 100 91 26 40 100 100 97 98 100 92 7 21 2 0 0 6 0 0 2 14 14 4 5 4 0 0 0 0 0

GFSMA_prec_cloud_015.txt.gz
Cloud_Cover
3 5 5 7 4 6 2 70 80 100 100 100 99 19 15 98 9 0 2 4 3 4 17 85 100 100 100 55 87 100 100 36 28 47 7 13 3 5 5 5 5 4 5
3 2 0 0 0 3 45 58 38 90 100 65 100 0 24 96 6 0 1 4 18 2 5 26 6 42 56 62 69 50 76 100 89 90 90 81 97 5 4 3 6 3 5
0 4 0 0 0 0 0 0 79 2 57 59 96 17 14 0 99 0 0 0 5 5 4 5 5 5 0 2 10 75 100 100 99 99 98 40 100 62 19 5 5 3 1
0 0 0 0 0 0 0 0 0 0 61 100 20 0 4 18 35 87 0 1 0 6 5 5 5 5 0 0 2 6 100 100 100 100 100 100 100 100 82 100 77 75 19
0 0 0 0 0 0 0 0 0 0 0 1 0 0 0 0 0 0 29 32 16 2 0 2 3 5 5 5 2 0 87 100 100 100 100 100 100 100 100 100 81 96 100
0 0 0 0 0 0 0 0 0 0 0 0 0 0 0 0 0 0 1 4 4 75 98 29 3 3 1 5 42 26 5 97 100 100 100 100 100 100 100 100 100 100 100
0 0 0 0 0 0 0 0 0 0 0 0 0 0 0 0 40 0 2 5 68 9 8 5 4 5 5 5 5 5 5 3 50 100 100 100 100 100 100 100 100 100 100
0 0 0 0 0 0 0 0 0 0 0 0 0 0 0 4 86 0 0 0 9 60 16 99 63 12 15 14 5 7 5 5 0 29 98 100 100 100 100 100 100 100 100
0 0 0 0 0 0 0 0 0 0 0 1 2 0 0 0 0 49 0 6 1 7 80 100 100 100 100 100 90 71 24 79 5 1 0 85 100 100 100 100 100 100 100
0 23 0 0 0 8 0 0 0 0 0 5 4 0 0 0 0 3 2 0 4 27 48 92 100 100 100 100 100 100 100 95 100 60 5 3 49 100 100 100 100 100 100
0 16 0 0 0 2 0 0 0 0 0 0 0 0 0 0 0 0 0 0 0 0 4 5 47 92 87 96 100 100 100 100 100 100 100 22 3 0 86 100 100 100 100
3 0 0 0 0 0 0 0 0 0 0 0 0 0 0 0 0 0 0 1 5 0 0 0 0 0 2 3 6 43 97 100 98 100 100 82 98 41 3 6 84 100 100
21 2 0 0 0 0 0 0 0 0 0 0 5 5 4 0 0 0 0 0 3 4 0 0 0 0 1 5 95 75 13 100 100 100 100 100 100 98 62 93 47 24 93
0 0 0 0 0 0 0 0 0 0 3 1 5 29 5 5 5 0 0 1 2 5 5 5 0 4 4 1 1 3 14 68 97 57 89 100 100 100 100 100 100 56 21
0 0 0 0 0 0 0 0 4 1 5 5 8 98 24 5 5 0 0 5 2 5 18 83 16 5 5 1 0 4 5 5 6 8 10 84 100 100 100 62 100 100 100
0 0 0 0 0 0 0 0 0 2 5 6 12 98 11 11 5 5 0 3 5 2 5 43 81 63 23 5 5 5 5 5 5 5 5 9 5 14 58 100 100 100 100
0 0 0 0 0 0 0 1 0 4 48 91 8 77 68 25 6 37 4 2 4 5 5 90 47 5 6 5 5 5 5 5 5 5 5 33 7 5 5 5 51 100 100
0 0 0 0 0 0 0 0 0 96 100 92 100 100 7 9 5 20 12 2 5 5 5 5 12 100 27 74 11 5 5 5 5 5 5 5 5 5 5 5 6 77 82
0 0 0 0 0 0 0 0 0 96 100 100 100 100 76 100 43 5 5 0 5 5 5 22 70 15 6 13 58 56 5 5 5 50 36 83 99 5 5 5 4 33 91
0 0 0 0 0 0 0 0 0 100 100 100 100 100 100 100 100 11 5 0 5 26 100 100 20 100 25 11 100 22 5 5 6 72 100 100 31 5 5 3 4 5 5
0 0 0 0 0 0 0 0 15 100 100 100 100 100 100 100 100 16 50 27 5 9 85 8 85 97 78 100 84 5 10 33 9 5 5 4 1 0 0 0 0 0 0
0 0 0 0 0 0 0 0 49 100 100 100 100 100 100 100 100 75 77 94 5 4 15 18 53 42 50 93 26 6 5 5 8 14 5 5 0 0 0 0 0 0 0
0 0 0 0 0 0 0 8 9 100 100 100 100 100 97 99 100 100 99 98 8 17 10 5 9 57 34 72 96 88 8 5 7 0 2 4 0 0 0 0 0 0 0
30 38 0 0 0 0 3 4 81 99 100 100 100 100 99 100 100 92 100 88 88 1 33 27 5 15 72 94 14 65 79 43 50 1 0 17 0 0 0 0 0 0 0
86 57 8 0 0 2 50 12 99 96 90 98 100 97 100 100 100 47 43 81 29 36 89 63 16 27 70 90 82 93 98 95 51 0 1 0 0 1 20 100 99 82 8
100 94 41 7 7 20 99 56 100 100 100 100 100 100 100 100 98 100 86 100 14 19 98 89 84 51 5 0 0 3 5 20 1 0 0 0 0 0 2 5 40 53 12

GFSMA_prec_cloud_021.txt.gz
Cloud_Cover
0 0 0 0 0 0 4 79 57 33 87 55 24 76 13 0 0 0 0 0 0 1 5 100 35 13 13 6 12 23 80 100 100 93 100 80 34 76 6 5 5 5 5
0 0 0 0 0 0 55 83 100 90 100 73 5 44 3 0 15 1 0 0 0 0 0 16 5 1 14 7 10 5 64 100 100 99 100 93 33 94 51 49 22 5 5
0 0 0 0 0 0 6 3 58 20 77 0 100 16 0 83 0 0 0 0 0 0 0 0 1 53 5 5 47 11 6 80 100 100 100 91 87 99 100 100 100 12 6
0 0 0 0 0 0 0 0 0 0 23 0 0 66 0 0 0 0 0 0 0 0 0 0 0 0 4 0 12 100 31 5 90 100 100 100 100 100 100 100 100 100 82
14 0 0 0 0 0 0 0 0 0 0 0 0 0 0 0 0 0 0 0 0 5 5 5 4 2 2 0 9 9 14 98 7 100 100 100 100 100 100 100 100 100 100
0 0 0 0 0 0 0 0 0 0 0 0 0 0 0 0 0 0 0 0 0 1 0 0 1 5 76 54 5 5 6 5 2 3 99 100 100 88 100 100 100 100 100
0 0 0 0 0 0 0 0 0 0 0 2 5 4 1 5 5 5 5 4 1 0 0 0 0 0 17 46 5 74 94 23 5 5 5 26 100 100 100 100 100 100 100
0 0 0 0 0 0 0 0 0 0 0 0 0 5 5 5 5 5 5 5 5 5 44 12 5 0 0 4 8 22 32 63 17 6 5 13 2 89 100 100 100 100 100
0 0 0 0 0 0 0 0 0 0 0 0 2 5 5 5 5 5 6 6 5 6 20 7 58 51 0 0 1 1 0 1 5 24 49 7 5 5 42 100 100 100 100
0 0 0 0 0 0 0 0 0 0 0 0 0 5 56 41 47 5 52 100 99 99 41 91 81 85 1 0 0 0 0 0 0 7 94 71 8 5 6 1 62 100 100
0 0 0 0 0 0 0 5 0 0 0 0 0 37 10 45 69 21 68 100 96 98 10 51 58 91 26 11 0 0 0 0 0 5 5 54 100 90 20 68 48 2 8
0 0 0 0 0 0 0 2 0 0 0 0 0 4 88 7 7 6 90 100 60 23 64 28 31 28 80 90 6 0 0 0 0 1 4 3 6 98 100 79 82 100 100
0 0 0 0 0 0 0 0 0 0 0 0 0 1 2 5 8 59 80 100 31 100 65 58 99 66 98 54 0 0 0 0 3 0 0 0 0 3 18 74 89 100 100
0 0 0 0 0 0 0 0 0 0 0 0 0 0 0 5 5 5 15 26 36 97 5 83 98 36 97 9 4 0 0 0 0 0 0 0 0 0 5 0 0 10 96
0 0 0 0 0 0 0 0 0 0 0 0 0 0 0 5 17 11 5 5 5 63 6 12 40 32 62 6 5 3 1 0 0 0 0 0 0 0 0 0 2 2 0
0 0 0 0 0 0 0 0 0 0 0 0 0 0 4 4 1 5 2 4 2 5 59 5 7 5 5 5 5 5 5 5 5 5 5 5 5 4 5 2 0 0 4
0 0 0 0 0 0 0 0 0 0 0 0 0 4 5 58 88 5 5 5 5 4 96 94 93 6 5 5 2 5 2 5 5 9 5 5 5 5 3 0 4 3 1
0 0 0 0 0 0 0 0 0 0 0 0 0 5 18 27 75 56 5 6 100 93 100 100 99 35 73 5 5 4 1 5 5 7 63 5 0 0 0 0 1 5 5
0 0 0 0 0 0 0 0 0 0 0 0 1 6 93 17 33 91 100 99 100 100 90 100 36 16 60 10 8 5 28 5 29 5 6 5 5 38 75 97 100 100 100
0 0 0 0 0 0 0 0 0 0 0 2 12 88 59 53 100 100 84 100 100 100 100 100 6 5 69 5 5 98 72 46 97 100 100 5 5 57 72 93 23 12 68
0 0 0 0 0 0 0 0 0 0 0 0 25 15 80 99 100 100 100 100 100 100 100 100 13 26 66 17 38 38 85 55 67 68 100 96 95 99 34 1 0 6 2
0 0 0 0 0 0 0 0 0 0 0 0 5 95 100 100 100 6 99 99 22 89 14 5 4 5 5 6 63 46 65 100 32 100 100 2 0 0 0 0 0 0 0
0 0 0 0 0 0 0 0 0 0 0 2 66 78 100 100 42 68 100 5 16 16 4 4 6 5 58 5 80 40 98 100 100 82 97 2 0 0 0 0 0 0 0
0 0 0 0 0 0 0 0 0 0 0 89 100 100 56 15 66 100 45 55 6 37 6 6 5 86 53 52 95 100 100 100 100 100 41 0 0 0 0 0 0 0 0
20 5 0 0 0 0 0 0 2 0 90 100 100 64 13 53 100 96 94 99 95 5 42 51 63 100 93 100 80 51 100 100 94 36 21 0 0 0 0 0 0 0 0
5 5 7 2 0 0 22 18 34 8 100 100 100 100 100 87 100 100 99 100 22 20 58 37 100 100 100 100 100 100 100 100 84 0 4 0 0 0 0 0 0 0 0

GFSMA_prec_cloud_024.txt.gz
Cloud_Cover
14 18 0 4 9 22 96 38 6 7 63 51 92 50 12 25 37 23 4 0 0 0 3 52 5 7 5 5 10 20 20 100 100 96 78 85 93 40 39 10 12 5 5
2 48 26 32 96 88 94 0 1 52 96 72 53 2 24 38 11 14 1 0 0 0 0 0 0 2 5 5 35 6 19 86 90 100 100 99 92 31 92 89 100 44 74
0 4 56 21 80 18 2 6 6 56 15 7 7 16 58 16 17 38 56 93 30 0 0 0 0 5 6 0 23 100 99 47 100 100 100 100 99 64 99 100 100 100 98
1 4 14 3 51 0 1 43 10 1 10 7 4 6 10 13 21 8 22 88 65 88 4 0 0 0 2 3 5 83 15 92 90 100 100 100 100 99 100 100 100 100 100
0 4 8 27 0 56 2 10 9 3 5 5 5 11 7 5 5 22 43 27 28 98 99 17 0 0 0 5 4 14 99 61 5 3 84 100 100 100 100 95 100 100 100
0 0 85 0 0 62 31 19 4 1 4 5 5 5 7 40 5 12 50 23 11 8 97 99 100 99 2 0 2 2 23 6 14 40 2 30 100 100 100 100 100 100 100
7 0 59 0 0 12 20 7 5 4 0 1 5 5 5 5 5 5 5 86 5 4 12 66 99 100 18 0 0 0 0 0 0 4 63 5 3 100 100 100 100 100 100
0 0 77 0 1 20 1 4 0 28 0 0 2 10 38 11 10 5 5 85 24 0 5 99 98 84 52 78 0 0 0 0 0 0 0 0 5 18 57 100 100 100 100
0 0 1 0 9 3 25 8 3 1 18 0 0 13 37 79 17 52 61 54 88 5 5 96 98 58 23 27 18 0 0 0 0 0 0 0 4 5 7 6 91 100 100
0 0 0 0 0 2 13 8 17 3 0 0 0 0 0 5 50 94 62 30 96 60 5 36 99 100 99 64 14 79 0 1 5 4 5 0 0 0 5 24 20 20 100
0 0 0 0 0 0 8 8 11 0 1 0 0 0 0 0 0 1 99 58 5 6 42 32 63 100 100 94 99 100 89 4 6 5 5 10 0 0 0 0 3 84 95
0 0 0 0 0 0 2 24 45 13 0 0 0 0 0 0 0 2 5 4 31 51 15 25 33 94 98 98 100 100 98 73 5 5 3 5 49 4 0 0 0 0 18
0 0 0 0 0 0 0 8 41 17 4 0 0 0 0 0 0 4 4 5 5 64 68 8 100 70 15 83 100 100 10 5 5 3 5 5 48 50 4 0 0 0 0
0 0 0 0 0 0 0 6 20 9 2 0 0 0 0 0 0 4 5 5 5 27 17 5 99 25 12 66 56 9 5 10 4 5 99 96 100 100 10 1 1 0 0
0 0 0 0 0 0 0 2 0 13 0 0 0 0 0 5 0 3 8 45 5 10 68 11 24 5 14 6 11 4 5 13 58 100 100 100 100 100 66 5 5 5 3
0 0 0 0 0 0 0 0 1 5 6 0 0 0 0 4 5 87 72 6 5 5 14 16 4 4 3 0 5 13 10 79 100 100 100 100 100 87 5 5 5 5 5
0 0 0 0 0 0 0 0 0 0 2 0 0 0 0 1 5 13 97 61 3 3 28 49 6 5 4 0 5 26 62 35 100 100 100 100 100 98 5 5 0 0 0
0 4 0 0 0 0 0 0 0 0 0 0 0 0 0 2 5 62 65 34 5 5 6 0 77 100 5 0 0 5 13 100 100 100 100 100 96 5 5 5 6 7 5
62 8 0 0 0 0 0 0 0 0 0 0 0 5 7 11 32 98 100 96 3 5 7 5 96 4 9 5 3 38 25 100 100 100 100 63 5 5 5 4 5 68 100
0 0 0 0 0 0 0 0 0 0 0 0 0 5 5 5 62 100 100 92 4 5 5 13 21 4 5 38 34 92 100 100 100 100 100 100 82 4 3 0 0 0 0
0 0 0 0 0 0 0 0 0 0 0 0 0 0 3 12 57 100 98 13 29 5 5 30 5 4 0 46 84 100 100 100 100 100 100 100 98 84 84 82 40 7 0
0 0 0 0 0 0 0 0 0 0 0 0 0 0 2 0 34 100 70 16 100 13 1 5 2 5 4 5 41 96 100 100 100 100 100 100 34 54 28 53 95 16 0
0 0 0 0 0 0 0 0 0 0 0 0 0 0 16 2 100 99 47 95 100 16 15 97 64 4 5 8 98 100 100 100 100 100 100 100 62 28 0 5 0 0 0
0 0 0 0 0 0 0 0 0 0 0 0 0 0 10 52 100 100 20 99 100 99 51 48 23 41 40 84 100 10 100 100 100 100 100 100 77 3 0 0 0 0 0
0 0 0 0 0 0 0 0 0 0 0 0 0 1 35 80 100 99 47 76 100 100 78 54 38 14 100 100 59 100 100 100 100 100 100 100 100 6 0 0 0 0 0
1 0 0 4 0 3 5 5 7 0 2 58 4 1 0 86 100 97 79 100 100 100 65 56 100 88 100 74 96 100 100 100 100 100 100 92 42 6 0 0 0 0 0

GFSMA_prec_cloud_027.txt.gz
Cloud_Cover
16 82 21 94 66 95 96 0 14 5 0 100 20 2 77 10 12 100 0 0 0 0 1 2 1 1 4 1 8 5 37 88 100 99 100 24 53 29 19 47 54 56 5
24 100 68 99 99 62 53 19 21 94 26 83 2 3 81 15 4 36 48 4 4 5 4 2 0 4 5 5 9 62 86 62 97 100 100 100 100 96 82 68 100 100 100
1 70 88 66 100 24 15 65 24 99 12 61 70 5 100 52 57 29 99 99 42 63 7 5 0 0 4 5 5 48 97 58 100 100 100 100 100 100 100 95 100 100 100
7 2 68 27 100 4 95 100 96 16 84 69 100 96 44 62 91 92 61 100 100 100 100 48 2 0 0 0 0 9 10 11 5 75 100 97 85 99 100 100 100 100 100
5 10 27 92 0 95 47 56 86 18 9 8 51 67 100 100 100 97 66 28 84 100 100 100 69 35 0 0 14 2 10 2 2 4 2 61 100 100 100 100 100 100 100
6 0 48 0 0 100 15 61 24 3 0 5 9 58 63 92 48 86 56 43 74 91 100 100 100 97 5 0 0 0 0 0 0 0 1 15 4 87 100 100 100 100 100
10 17 25 88 0 81 3 0 14 2 19 0 6 5 66 97 38 23 46 5 24 100 100 100 100 100 100 85 36 5 2 0 3 1 3 0 0 0 50 100 100 100 100
1 100 1 1 28 13 10 1 0 62 0 0 60 95 86 63 35 36 5 50 13 7 100 100 100 97 100 100 84 100 50 12 14 5 1 0 0 0 1 19 100 100 100
0 89 11 0 16 4 82 10 0 6 98 0 0 51 54 98 42 72 5 12 9 22 92 100 100 100 100 100 42 61 100 5 5 22 4 0 0 0 0 0 3 87 100
0 0 2 0 0 0 0 4 0 14 4 6 0 0 0 14 99 90 87 13 5 5 9 90 100 100 23 57 82 100 96 5 5 5 4 5 0 0 0 0 0 0 1
0 0 0 2 1 0 0 0 1 0 4 0 0 0 0 0 0 88 50 80 15 2 13 57 99 98 92 44 96 100 100 74 28 40 24 95 5 5 5 4 2 0 0
0 0 0 0 0 0 2 0 0 2 0 0 0 0 1 3 10 11 51 28 48 34 15 88 100 93 93 17 46 33 55 5 15 81 5 49 84 4 0 3 4 3 0
0 0 0 0 0 0 0 1 0 0 0 0 0 0 0 0 5 5 5 11 20 45 50 100 46 97 84 12 68 5 5 7 22 23 62 83 40 3 4 1 0 0 0
0 0 0 0 0 0 0 0 0 8 0 0 0 0 0 0 4 18 87 35 37 24 94 99 32 86 88 8 5 5 87 100 100 100 100 100 100 9 5 4 1 0 0
0 0 0 0 0 0 0 0 0 0 0 0 0 0 0 0 5 5 42 73 45 86 98 8 10 9 50 5 5 5 29 100 100 100 100 100 100 100 50 20 5 5 5
0 0 0 0 0 0 0 0 0 0 0 0 0 0 0 0 1 7 15 47 8 10 42 43 8 24 16 8 5 5 4 100 100 100 100 100 100 100 100 78 4 5 5
0 0 0 0 1 0 0 0 0 0 0 0 0 0 0 0 5 4 43 1 1 3 96 15 6 6 2 26 2 5 4 100 100 100 100 100 100 100 100 100 32 0 0
0 0 0 6 68 0 0 0 0 0 0 0 0 0 0 0 0 5 5 0 3 4 44 100 26 5 1 5 3 5 17 100 100 100 100 100 100 100 96 78 50 0 0
0 0 0 0 0 0 0 0 0 0 0 0 0 0 0 2 0 0 0 0 5 5 9 46 4 5 5 5 70 9 8 5 100 100 100 100 97 100 100 100 21 1 0
0 0 0 0 0 0 0 0 0 0 0 0 0 0 0 0 2 1 5 0 0 0 6 48 55 4 3 27 26 57 87 72 100 100 100 100 100 100 100 100 89 2 1
0 0 0 0 0 0 0 0 0 0 0 0 0 0 0 0 0 0 0 0 0 0 19 5 68 4 4 60 100 78 85 49 100 100 100 100 100 100 100 99 93 64 4
0 0 0 0 0 0 0 0 0 0 0 0 0 0 0 0 5 0 0 0 0 3 5 5 51 11 5 0 0 8 100 5 100 100 100 100 100 100 100 100 100 96 22
0 0 0 0 0 0 0 0 0 0 0 0 0 0 0 0 0 0 0 0 0 5 6 7 33 32 37 5 0 4 94 9 99 98 100 100 100 100 90 79 5 5 5
0 0 0 0 0 0 0 0 0 0 0 0 5 0 0 0 1 0 0 0 5 5 28 57 100 100 34 17 5 4 78 100 95 100 100 100 100 100 100 100 64 18 5
0 0 0 0 0 0 0 0 0 0 0 0 0 1 0 0 1 0 0 34 100 89 100 100 100 100 86 37 10 5 83 100 100 100 100 100 100 100 70 100 95 42 97
0 0 0 0 0 0 0 0 2 0 0 0 0 4 0 0 0 42 41 100 100 100 100 100 100 100 100 100 99 98 99 100 100 100 100 100 100 100 100 99 78 100 35

GFSMA_prec_cloud_030.txt.gz
Cloud_Cover
76 67 78 85 100 100 78 79 25 10 5 91 88 9 29 91 73 5 7 3 5 5 5 0 4 3 5 15 4 4 7 31 13 80 98 96 92 97 73 6 54 100 99
7 6 23 96 26 24 19 34 33 57 79 46 5 100 82 5 37 56 31 72 43 52 4 1 5 2 16 5 5 17 16 5 5 5 44 87 92 100 100 100 71 100 100
18 69 32 33 34 30 28 42 21 96 97 84 42 98 37 51 5 97 97 99 17 5 5 0 0 0 1 0 4 5 5 5 0 5 64 96 97 100 100 100 100 100 100
0 0 78 61 24 100 78 0 5 100 5 100 65 100 99 38 15 73 98 95 61 99 59 1 4 1 0 0 0 1 0 0 4 5 5 98 100 100 100 100 100 100 99
0 0 5 64 0 89 36 46 2 75 80 37 99 50 60 91 100 99 63 73 47 72 100 48 5 5 2 1 0 0 1 0 0 0 1 5 4 38 99 100 100 100 100
0 0 0 12 0 70 0 37 9 0 0 0 77 25 73 71 91 73 85 100 6 74 100 83 100 91 20 52 67 16 7 31 6 1 0 0 0 4 5 91 100 100 100
12 2 0 46 3 20 3 0 0 0 0 0 0 0 1 6 10 100 100 14 80 100 100 100 34 91 100 93 90 6 73 100 100 87 0 0 0 0 0 0 56 100 100
86 0 0 32 59 73 1 0 0 30 2 0 55 99 90 16 43 37 0 0 9 100 100 100 88 24 24 98 100 82 99 100 100 97 28 5 1 0 0 0 0 24 100
100 99 0 0 30 50 19 0 0 0 0 0 4 39 59 77 46 96 5 3 23 100 98 52 5 13 28 99 17 100 100 79 99 91 100 92 5 4 0 0 0 0 1
7 42 0 0 0 4 2 0 0 0 6 5 0 0 0 18 2 63 5 19 67 89 99 100 77 14 54 99 60 75 94 100 20 100 98 91 99 92 44 8 1 0 0
0 0 10 0 0 0 0 0 0 0 0 0 0 0 0 0 0 27 17 29 5 61 49 97 96 34 100 100 100 100 100 97 54 100 95 62 82 100 100 100 42 9 5
0 0 0 0 0 0 0 0 0 0 0 0 0 0 0 0 3 5 100 63 45 21 9 76 81 29 92 100 43 95 72 44 58 40 100 20 93 61 93 100 100 100 37
0 0 0 0 0 0 0 0 0 0 0 0 0 0 0 0 24 0 11 58 37 67 68 33 75 54 23 99 91 79 16 19 66 5 24 100 100 40 65 11 5 73 100
0 0 0 0 0 0 0 0 0 0 0 0 0 0 0 0 0 0 2 1 0 87 95 100 97 86 89 88 100 100 94 5 5 19 74 100 100 53 32 8 5 77 100
0 0 0 0 0 0 0 0 0 0 0 0 0 0 0 0 0 0 0 0 0 2 65 100 57 96 100 100 100 35 54 4 75 95 100 100 100 100 74 92 77 35 100
0 0 0 0 0 2 4 0 0 0 0 0 0 0 0 0 0 0 0 0 0 0 10 100 100 46 61 100 99 6 5 5 4 57 100 100 100 100 100 99 83 98 100
0 0 0 0 0 1 61 22 2 0 0 0 0 0 0 0 0 0 0 0 0 0 4 74 39 8 5 56 97 27 13 31 5 2 44 100 100 100 100 52 16 88 67
0 0 0 0 0 0 0 0 0 0 0 0 0 0 0 0 0 0 0 0 0 0 0 0 0 92 5 75 88 68 25 5 31 32 100 100 100 100 100 86 5 67 31
0 0 0 0 0 0 0 0 0 0 0 0 0 0 0 0 0 0 0 0 0 0 0 0 0 41 5 49 16 47 23 5 95 100 100 100 100 100 100 83 74 80 50
0 0 0 0 0 0 0 0 0 0 0 0 0 0 0 0 0 0 0 0 1 0 0 0 0 4 0 10 5 9 41 4 22 96 100 100 100 100 100 100 100 80 34
0 0 0 0 0 0 0 0 0 0 0 0 0 0 0 0 0 0 0 0 0 0 0 0 0 0 2 25 34 79 100 26 97 94 100 100 100 100 100 100 100 100 85
0 0 1 3 0 0 0 0 0 0 0 0 0 0 0 0 0 0 0 0 0 0 0 0 0 0 76 20 58 85 34 58 100 100 96 80 94 100 100 100 100 100 100
4 5 3 0 0 0 0 0 0 0 0 0 0 0 0 0 0 0 0 0 0 0 0 0 24 90 74 100 98 54 57 53 99 90 62 90 93 100 100 100 100 41 88
5 0 0 0 0 0 0 0 0 0 0 0 0 0 0 0 0 0 0 0 0 0 1 100 98 30 16 26 100 100 35 62 96 92 100 100 100 100 100 100 100 100 6
5 5 0 0 0 0 0 0 0 0 0 0 0 0 0 0 0 0 0 0 100 57 100 100 25 100 100 62 99 80 82 100 100 99 96 78 100 100 100 100 99 100 78
4 17 2 1 0 0 0 0 2 0 0 0 0 0 0 0 5 0 5 60 100 100 100 100 100 100 100 100 99 89 99 96 99 100 100 100 100 100 100 100 100 100 73

GFSMA_prec_cloud_033.txt.gz
Cloud_Cover
2 5 92 38 28 5 21 6 5 5 32 89 7 5 7 70 81 33 0 1 2 2 12 0 3 2 3 4 5 9 7 5 28 10 25 53 97 89 60 58 20 97 100
10 10 68 8 22 2 6 15 5 5 64 28 5 80 20 12 25 80 12 5 1 0 0 3 0 1 0 0 2 5 5 6 28 69 99 100 99 90 100 100 100 100 100
0 0 28 32 0 0 0 0 13 34 99 100 36 19 37 5 7 6 86 38 65 27 0 0 0 4 11 0 0 10 1 3 5 10 66 98 100 100 100 100 81 100 99
3 1 15 41 0 57 0 0 98 42 37 41 79 95 79 64 0 5 5 14 100 27 8 3 1 0 9 5 57 7 4 0 0 2 0 67 90 100 100 100 100 100 100
3 2 8 29 1 16 12 24 6 79 32 2 97 5 32 100 13 8 38 75 100 61 6 6 7 10 87 72 43 5 5 4 4 4 1 3 0 0 2 86 100 100 100
0 5 4 4 1 27 0 19 11 0 0 0 0 1 2 9 100 57 86 100 98 93 64 78 84 35 86 100 100 89 60 56 0 0 0 0 0 0 0 0 20 100 100
5 5 5 36 12 0 0 0 0 0 0 0 3 16 0 0 64 5 47 97 31 18 5 8 11 69 24 68 18 100 100 100 100 100 18 8 7 0 0 4 2 1 99
4 2 61 67 100 32 0 0 0 0 0 0 0 92 24 0 0 23 64 82 93 50 5 5 94 100 56 64 51 68 59 100 100 100 100 87 77 58 84 70 57 8 5
78 4 23 34 4 3 0 0 0 0 0 0 4 0 0 0 17 89 16 70 6 5 14 42 34 92 61 98 89 51 5 65 98 100 99 100 100 100 100 100 100 89 94
100 44 0 0 0 1 0 0 0 0 0 0 0 0 0 4 0 0 0 5 37 8 5 11 67 85 93 38 70 93 37 41 100 100 6 99 100 100 100 100 100 100 100
0 0 1 0 0 0 0 0 0 0 0 0 0 0 0 0 0 0 3 78 5 4 16 5 27 31 8 90 62 100 100 100 100 98 96 23 66 98 12 82 10 52 62
0 0 0 0 0 0 0 0 0 0 0 0 0 0 0 0 0 0 0 26 2 3 5 14 15 56 38 26 8 99 100 100 100 100 97 100 86 27 98 43 100 100 91
0 0 0 0 1 0 0 0 0 0 0 0 0 0 0 0 0 0 0 0 0 0 6 49 16 88 5 22 73 100 86 100 100 100 100 93 100 77 100 100 100 100 100
0 0 0 0 0 0 0 0 0 0 0 0 0 0 0 0 0 0 0 0 0 0 0 97 35 5 5 27 10 78 99 93 90 100 100 100 99 98 77 100 97 100 100
0 0 0 0 0 0 0 5 4 0 0 0 0 0 0 0 2 0 0 0 0 0 0 0 41 80 10 37 76 28 100 100 100 97 91 100 100 25 100 98 100 100 100
0 0 0 0 0 0 0 0 3 1 0 1 0 0 0 0 1 0 0 0 0 0 0 0 0 0 3 23 22 51 100 100 100 93 92 100 89 26 12 100 100 100 100
0 0 0 0 0 0 0 0 0 0 0 0 0 0 0 0 0 0 0 0 0 2 0 0 0 0 0 2 74 39 100 100 87 100 100 100 70 58 88 46 100 100 100
0 0 0 0 0 0 0 0 0 0 0 0 0 0 0 0 0 0 0 0 0 0 0 3 0 0 0 0 3 12 94 49 100 100 100 95 100 98 12 5 88 100 100
0 0 0 0 0 0 0 0 0 0 0 0 0 0 0 0 0 0 0 0 0 0 0 0 0 0 0 0 5 9 47 62 8 49 96 73 100 100 15 25 88 100 100
0 0 0 0 0 0 0 0 0 0 0 0 0 0 0 0 0 0 0 0 0 0 0 0 0 0 0 0 0 76 71 100 98 100 100 99 38 45 45 9 70 98 100
0 0 0 0 0 0 0 0 0 0 0 0 0 0 0 0 0 0 0 0 0 0 0 0 0 0 0 0 93 100 100 100 100 100 100 98 100 100 100 100 96 100 100
0 0 0 0 0 0 3 0 0 0 0 0 0 0 0 0 0 0 0 0 0 0 0 0 0 0 2 99 100 100 100 83 99 78 99 98 99 100 100 100 100 100 100
0 0 0 0 0 4 0 0 0 0 0 0 0 0 0 0 0 0 0 0 0 0 1 78 100 93 100 40 99 100 100 100 35 40 94 100 93 100 99 98 100 100 100
2 12 25 5 4 0 0 0 0 0 0 0 0 0 0 0 0 0 3 3 2 0 78 100 100 100 98 100 35 94 100 100 100 92 66 68 93 100 100 99 100 100 100
69 81 47 80 2 0 0 0 0 0 0 0 1 4 5 2 0 0 0 28 18 6 99 100 99 67 7 17 100 100 100 90 100 100 100 100 98 99 100 100 100 100 100
0 0 0 5 2 3 2 12 14 4 0 5 1 3 3 2 7 6 4 4 100 100 100 99 94 100 100 100 70 26 53 24 95 100 100 93 100 99 100 100 100 100 69

GFSMA_prec_cloud_036.txt.gz
Cloud_Cover
0 0 0 2 3 5 56 5 5 16 5 4 14 4 3 4 5 7 4 5 0 0 4 3 2 0 0 5 4 2 4 19 30 96 90 78 49 100 100 100 22 12 92
0 0 0 0 10 1 16 24 5 5 5 5 5 65 0 5 8 6 5 0 1 0 0 5 6 7 11 4 0 0 0 0 0 0 6 6 99 100 100 100 88 42 72
0 0 0 0 0 0 0 0 43 2 23 47 9 89 3 5 35 30 0 1 0 0 14 5 20 30 5 6 8 28 4 0 0 0 0 0 8 95 100 100 100 91 97
0 0 0 0 0 0 12 0 21 3 31 65 44 59 5 5 52 5 2 11 1 2 5 5 18 6 34 7 9 3 0 0 0 0 0 3 5 5 4 86 73 100 86
1 0 0 1 0 0 0 1 9 0 0 47 0 3 77 90 49 5 65 5 2 5 7 6 78 23 14 100 5 3 14 5 1 0 4 4 4 3 29 3 5 61 100
37 5 1 0 0 0 0 0 0 0 0 0 1 0 61 100 15 20 5 5 5 49 5 28 77 54 42 97 100 46 13 57 5 2 2 0 0 4 5 8 3 0 1
40 53 4 5 4 0 0 0 0 0 0 0 0 0 22 5 13 6 5 4 5 5 21 23 100 71 100 91 60 100 90 94 64 5 100 4 5 5 5 47 54 5 5
3 7 33 26 7 5 2 0 0 0 0 0 0 0 0 0 15 61 5 5 5 5 18 15 53 12 41 100 100 100 87 100 86 100 100 100 100 100 93 100 95 23 66
34 5 74 38 0 0 0 0 0 0 0 0 0 0 0 0 0 4 0 0 5 5 16 5 5 5 11 83 100 100 100 100 100 95 100 94 94 96 100 100 100 100 100
58 8 3 0 0 3 0 0 0 0 0 0 0 0 0 0 0 1 0 0 0 2 5 41 5 5 17 79 68 84 100 100 100 100 100 100 53 19 51 100 96 100 40
73 41 4 0 0 0 0 0 0 0 0 0 0 0 0 0 0 0 0 0 4 5 5 63 18 46 31 98 100 100 100 100 100 100 100 100 100 100 94 100 38 31 31
0 0 3 0 0 0 0 0 0 0 0 0 0 0 0 0 0 0 0 0 0 6 16 17 17 5 4 5 97 100 78 93 96 99 100 100 100 100 100 77 99 100 60
0 0 0 0 0 0 0 0 0 0 0 0 0 0 0 0 0 0 0 0 0 0 0 0 0 6 4 0 8 96 100 100 100 100 50 100 100 100 91 59 10 67 48
0 0 0 0 0 0 0 0 0 0 0 0 0 0 0 1 0 0 0 0 0 0 0 0 0 0 0 0 11 5 74 100 100 71 99 100 100 100 100 100 89 15 47
0 0 0 0 0 0 0 0 0 0 0 0 0 0 0 0 3 0 0 0 0 0 0 0 0 0 0 0 0 15 15 100 7 100 100 100 100 100 100 99 27 6 6
0 0 0 0 0 0 0 0 0 0 0 4 0 0 0 0 0 0 0 0 0 0 0 0 0 0 0 0 0 2 16 65 5 95 64 93 100 100 100 95 6 5 60
0 0 0 0 0 0 0 0 0 0 0 0 0 0 0 0 0 0 0 0 0 0 0 0 0 0 0 0 0 0 3 2 5 14 16 6 89 100 100 99 52 10 5
0 0 0 0 0 0 0 0 0 0 0 0 0 0 0 0 0 0 0 0 0 0 0 0 0 0 0 0 0 0 0 1 84 100 100 98 55 100 100 74 61 67 98
0 0 0 0 0 0 0 0 0 0 0 0 0 0 0 0 0 0 0 0 0 0 0 0 0 0 0 0 0 0 0 99 6 55 63 79 96 100 100 100 86 53 27
0 0 0 0 0 0 0 0 0 0 0 0 0 0 0 0 0 0 0 0 0 0 0 0 0 0 0 2 0 0 4 60 4 36 86 100 100 100 100 100 89 99 14
0 0 0 0 0 0 0 0 0 0 0 0 0 0 0 0 0 0 0 0 0 0 4 5 95 80 99 45 21 7 5 5 92 82 74 100 100 100 99 100 100 100 53
5 5 2 0 0 0 0 0 0 0 0 0 0 0 0 0 0 0 0 0 0 3 4 93 100 82 100 100 100 57 5 99 100 100 100 99 100 100 100 100 100 100 100
5 0 0 0 0 0 0 1 5 3 0 0 0 0 0 0 0 0 0 0 0 1 5 5 72 100 63 66 90 12 87 100 100 100 91 96 23 100 100 100 100 100 100
6 0 0 0 0 14 44 37 4 0 0 0 0 0 0 0 0 0 0 3 3 5 5 5 10 86 90 14 8 7 16 100 100 97 93 100 98 70 100 100 100 100 100
0 0 0 3 11 86 40 6 2 0 0 0 0 0 0 2 5 5 5 5 8 2 10 28 86 9 30 86 70 55 80 96 70 100 100 100 77 98 98 100 97 100 100
1 0 0 1 0 5 3 4 16 5 3 0 0 5 29 72 100 97 93 48 43 17 43 7 5 5 5 96 10 29 8 51 97 66 92 100 71 98 90 100 100 100 100

GFSMA_prec_cloud_039.txt.gz
Cloud_Cover
1 1 0 0 0 0 5 5 5 5 0 30 98 0 0 0 0 5 8 1 3 5 5 5 5 3 0 1 0 6 16 12 0 0 0 2 50 82 99 32 20 91 81
3 0 0 0 0 0 0 0 1 2 0 0 0 0 0 0 0 0 1 2 5 100 41 18 97 50 3 0 3 1 5 0 0 1 0 0 4 84 100 100 98 5 41
0 0 0 0 0 0 0 0 3 53 0 10 47 0 3 0 0 0 1 3 5 5 18 6 10 2 17 5 0 0 0 0 0 0 0 0 0 0 5 5 5 67 41
0 0 0 0 0 0 0 10 0 95 7 39 65 5 0 0 0 0 0 4 3 6 6 95 24 5 5 13 1 5 5 5 3 7 5 4 0 2 1 0 2 6 5
0 0 0 0 0 0 0 0 41 0 77 0 5 5 6 4 0 0 0 5 16 72 10 34 89 65 100 90 37 5 5 6 24 10 5 5 6 78 20 5 61 22 14
2 0 2 0 0 0 0 0 0 0 0 0 0 0 29 15 4 5 5 23 5 14 50 78 83 61 100 100 100 82 97 98 96 11 6 97 62 91 50 100 100 93 52
5 5 23 98 2 0 0 0 0 0 0 0 0 0 0 1 42 24 5 6 6 49 35 7 21 56 94 100 100 100 100 100 100 78 37 98 10 100 100 98 98 100 98
5 5 25 65 5 0 0 0 0 0 0 0 0 0 0 0 0 4 2 3 5 5 7 6 5 5 53 97 99 100 100 100 100 100 100 100 100 100 99 100 98 100 100
6 56 100 12 1 1 0 0 0 0 0 0 0 0 0 0 0 1 5 5 7 5 6 3 5 9 88 53 26 84 100 100 100 98 100 100 100 100 100 100 100 100 100
100 100 19 0 0 0 0 0 0 0 0 0 0 0 0 0 0 0 1 0 0 5 2 5 2 0 2 45 58 5 93 100 100 100 100 99 100 100 100 100 100 100 100
69 36 5 5 0 0 0 0 0 0 0 0 0 0 0 0 0 0 0 0 0 0 0 0 0 0 0 0 8 96 96 100 100 100 100 36 100 100 100 100 100 100 100
95 36 10 3 0 0 0 0 0 0 0 0 0 0 0 0 0 0 0 0 0 0 0 0 0 0 0 0 0 8 80 100 100 99 100 74 96 100 100 100 100 100 100
3 0 0 0 0 0 0 0 0 0 0 0 0 0 0 0 0 0 0 0 0 0 0 0 0 0 0 0 0 0 18 88 100 100 100 100 100 100 100 100 100 100 100
0 0 0 0 0 0 0 0 0 0 0 0 0 0 0 0 0 0 0 0 0 0 0 0 0 0 0 0 0 0 0 9 6 100 100 100 69 100 100 100 100 100 100
0 0 0 0 0 0 0 0 0 0 1 1 0 0 0 0 0 0 0 0 0 0 0 0 0 0 0 0 0 0 0 0 5 80 95 100 100 100 100 100 86 100 100
0 0 0 0 0 0 0 0 2 0 0 7 7 0 0 0 0 0 0 0 0 0 0 0 0 0 0 0 0 0 0 0 1 25 74 73 98 98 93 100 100 100 100
0 0 0 0 0 0 0 0 0 0 0 0 0 4 0 0 0 0 0 0 0 0 0 0 0 0 0 0 0 0 0 0 13 62 18 6 100 100 100 100 100 100 100
0 0 0 0 0 0 0 0 0 0 0 0 0 0 0 0 0 0 0 0 0 0 0 4 70 6 0 2 0 0 0 0 2 5 5 12 100 100 100 100 100 100 100
0 0 0 0 0 0 0 0 0 0 0 0 0 0 0 3 0 3 1 0 0 0 0 5 75 79 32 12 5 2 0 0 17 98 51 100 63 100 100 100 100 100 100
0 0 0 0 0 0 0 0 0 0 0 0 3 0 0 0 0 0 0 0 0 0 0 0 2 67 100 100 99 80 72 5 10 48 82 100 100 100 64 99 100 100 100
4 5 2 0 0 0 0 0 0 0 0 0 4 0 0 0 0 0 0 0 0 0 0 0 0 0 28 50 100 85 89 28 57 80 100 100 100 99 98 100 100 100 100
5 5 5 5 5 5 0 0 0 0 0 9 5 0 0 0 0 0 0 0 0 0 0 0 0 0 0 0 8 67 84 56 69 97 100 100 91 85 100 26 28 100 66
5 5 5 5 5 1 0 0 0 5 46 31 3 0 0 0 0 0 3 1 0 0 0 0 0 0 0 4 5 7 89 72 73 100 75 5 51 79 100 96 100 82 100
3 5 5 5 5 0 0 0 42 100 38 6 0 0 0 0 0 0 0 5 13 4 5 5 46 92 23 5 7 5 10 85 43 100 100 100 100 70 99 78 95 100 100
23 5 5 5 0 0 0 5 44 34 11 0 0 0 0 0 0 1 27 43 21 16 5 5 5 11 39 100 15 67 97 100 99 86 100 100 100 100 100 100 100 99 100
1 4 21 17 0 2 5 5 19 0 0 3 0 0 21 43 43 69 89 75 100 84 82 100 100 100 100 82 86 100 100 100 100 100 100 100 100 100 100 100 100 100 100

GFSMA_prec_cloud_042.txt.gz
Cloud_Cover
0 0 0 0 0 0 0 0 0 0 0 24 0 0 15 0 0 5 47 86 6 2 5 0 11 5 1 7 17 11 0 0 0 0 1 46 100 100 100 5 5 9 59
1 1 0 0 0 0 0 0 0 0 3 13 0 0 0 0 0 0 0 5 2 3 18 5 0 4 5 3 0 0 0 0 0 0 0 0 2 1 3 5 5 89 100
0 0 0 0 0 0 0 0 0 0 3 16 0 0 0 0 0 5 2 39 5 25 42 7 97 61 4 5 5 5 4 8 3 5 19 5 5 5 5 5 6 5 5
0 2 1 0 0 0 24 15 0 0 27 99 0 0 0 0 2 5 5 5 45 14 14 5 100 7 94 100 100 38 38 5 5 84 93 13 26 61 62 22 28 75 79
0 0 4 0 0 0 14 6 1 0 29 39 0 12 0 0 0 4 9 5 5 29 99 97 77 98 100 98 100 100 95 5 16 46 17 78 84 95 100 100 100 100 100
0 0 8 2 0 0 0 0 0 0 0 0 0 96 6 0 1 0 2 4 5 5 11 66 94 100 100 100 100 100 92 97 98 90 100 100 100 100 100 100 100 100 100
0 0 0 1 5 0 0 0 0 0 0 0 0 1 0 0 9 0 2 0 0 0 0 5 5 30 84 100 100 100 92 91 75 98 93 100 100 100 100 100 100 100 100
0 0 5 0 0 0 0 0 0 0 0 0 0 0 0 0 0 0 1 1 0 0 0 0 2 73 20 43 96 100 76 100 100 93 100 100 100 100 100 100 100 100 100
0 5 2 0 0 0 0 0 0 0 0 0 0 0 0 0 0 0 0 0 0 0 0 0 0 0 7 11 35 100 100 56 78 100 99 100 100 100 100 100 100 100 100
4 5 2 0 0 0 0 0 0 0 0 0 0 0 0 0 0 0 0 0 0 0 0 0 0 0 0 0 54 99 96 37 92 100 96 93 100 100 100 100 100 100 100
5 5 4 0 0 0 0 0 0 0 0 0 0 0 0 0 0 0 0 0 0 0 0 0 0 0 0 0 5 100 100 100 91 100 100 100 57 100 100 100 100 100 100
5 4 5 2 0 0 0 0 0 0 0 0 0 0 0 0 0 0 0 0 0 0 0 0 0 0 0 0 0 13 100 100 93 98 89 87 91 100 100 100 100 100 100
5 4 0 0 0 0 0 0 0 0 0 0 0 0 0 0 0 0 0 0 0 0 0 0 0 0 0 0 0 0 2 35 100 100 86 100 98 100 100 100 100 100 100
5 1 0 0 0 0 0 0 0 0 0 0 0 0 0 0 0 0 0 0 0 0 0 0 0 0 0 0 0 0 0 4 8 17 66 34 96 94 100 100 100 100 100
5 0 0 0 0 0 0 0 0 0 0 0 0 0 0 0 0 0 0 0 0 0 0 0 0 0 0 0 0 0 0 0 0 32 55 50 87 100 100 100 100 100 100
0 0 0 0 0 0 0 0 0 0 0 0 0 0 0 0 0 0 0 0 0 0 0 0 0 3 5 4 3 0 0 0 0 0 46 100 100 100 100 100 100 95 99
0 0 0 0 0 0 0 0 0 0 0 0 0 0 0 0 0 0 0 0 0 0 0 0 0 5 45 96 9 4 0 0 2 9 89 83 100 100 100 100 100 100 100
0 0 0 0 0 0 0 0 0 0 5 0 0 0 0 0 0 0 0 0 0 0 0 0 0 0 4 99 100 100 94 12 69 89 80 97 100 100 100 100 100 91 87
0 0 0 0 0 0 0 2 0 5 0 0 0 0 0 0 0 0 0 0 0 0 0 0 0 0 0 5 28 85 93 97 74 100 100 94 100 94 82 26 99 13 100
0 0 0 5 5 5 1 5 4 4 0 0 0 0 2 0 0 0 0 0 0 0 0 0 0 0 0 0 8 7 62 78 89 67 48 11 100 100 100 86 56 24 59
0 0 0 0 0 5 5 5 5 0 0 0 0 0 5 0 0 0 0 0 0 0 0 0 0 0 4 4 0 0 5 6 68 14 42 86 96 100 100 100 94 99 100
0 0 0 0 0 20 79 40 5 3 0 0 0 0 3 0 1 0 0 0 0 0 0 0 0 0 0 0 5 24 7 5 21 98 100 100 100 100 100 76 100 100 100
0 0 0 3 5 5 38 49 5 1 0 0 5 5 0 0 1 0 10 21 13 0 0 0 0 0 2 5 2 5 12 74 30 99 100 98 100 100 100 100 100 91 100
0 5 0 0 5 5 12 57 62 0 0 0 11 4 0 0 0 1 5 5 1 0 7 2 5 5 57 44 70 90 94 76 97 98 99 100 100 100 99 100 100 100 98
0 0 0 0 1 5 5 5 6 0 0 0 0 0 0 0 0 5 5 5 85 74 25 5 3 2 1 1 3 81 100 100 100 44 68 100 68 93 100 94 86 100 100
12 22 1 3 3 1 5 5 34 0 0 0 0 0 1 1 5 11 6 6 60 87 81 85 98 100 100 100 100 100 100 100 100 96 4 61 100 72 100 100 100 100 100

GFSMA_prec_cloud_045.txt.gz
Cloud_Cover
0 0 0 0 0 0 0 0 0 0 0 0 0 20 1 0 5 5 11 19 5 5 6 5 9 10 9 1 2 0 0 0 0 0 0 2 1 1 0 0 4 5 5
0 0 4 0 0 0 0 0 0 0 25 0 0 0 3 0 1 3 23 5 5 14 95 20 83 8 14 3 0 0 0 0 0 0 0 0 0 0 0 0 4 2 5
0 0 3 0 0 0 0 0 0 0 0 0 0 0 0 0 4 6 5 5 5 5 11 100 100 100 11 15 13 3 5 4 2 5 5 2 5 5 7 7 89 100 100
0 0 0 0 0 0 0 0 0 2 100 10 0 0 0 0 0 5 5 24 5 32 81 48 25 42 100 19 83 6 6 5 65 82 55 95 100 100 100 100 100 100 100
0 0 0 0 0 0 3 0 0 1 70 0 0 0 0 0 0 4 4 4 5 5 13 61 100 100 100 28 62 8 7 19 65 30 53 92 90 70 99 100 100 100 100
2 0 0 0 0 0 0 0 0 0 0 0 42 62 0 0 0 0 0 0 1 6 47 5 19 43 100 34 17 50 93 83 5 55 86 99 68 91 100 100 100 100 100
0 0 0 0 0 0 0 0 0 0 0 0 0 0 0 0 0 0 0 0 0 0 0 0 5 15 16 76 5 12 12 99 61 82 8 100 100 100 100 100 100 100 100
0 3 0 1 0 0 1 0 0 0 0 0 0 0 0 0 0 0 0 0 0 0 0 0 0 1 5 23 42 22 26 5 68 98 86 100 100 100 100 47 78 90 100
0 0 0 0 0 24 1 0 0 0 0 0 0 0 0 12 0 0 0 0 0 0 0 0 0 0 0 5 41 24 6 5 12 15 38 93 95 100 100 100 42 63 100
0 0 0 4 0 0 4 0 0 0 0 0 0 0 0 0 0 2 0 0 0 0 0 0 0 0 0 0 3 9 48 5 14 5 40 22 86 100 100 100 100 100 100
0 0 0 0 0 0 0 0 0 0 0 0 0 0 0 0 0 0 0 0 0 0 0 0 0 0 0 0 0 57 5 86 46 43 5 5 100 100 100 100 100 100 100
1 2 0 0 0 0 0 0 0 0 0 0 0 0 0 0 0 0 0 0 0 0 0 0 0 0 0 0 0 21 36 5 2 12 21 91 58 97 100 86 95 82 100
3 3 2 0 0 0 0 0 0 0 0 0 0 0 0 0 0 0 0 0 0 0 0 0 0 0 0 0 0 0 25 5 39 14 100 58 100 100 100 99 76 99 100
1 0 0 0 0 0 0 0 0 0 0 0 0 0 0 0 0 0 0 0 0 0 0 0 0 0 0 0 0 0 0 4 5 24 48 48 100 100 98 100 75 16 36
5 0 0 0 0 0 0 0 0 0 0 0 0 0 0 0 0 0 0 0 0 0 0 0 0 5 8 1 2 3 0 0 0 7 99 100 100 100 100 86 99 82 68
0 0 0 0 0 0 0 0 0 0 0 0 0 0 0 0 0 0 0 0 0 0 0 0 0 0 32 92 100 69 29 0 5 36 99 53 73 100 100 96 100 96 48
0 0 0 0 0 0 0 0 0 0 0 0 0 0 0 0 0 0 0 0 0 0 0 0 0 0 0 16 100 100 100 100 73 100 100 100 75 100 100 52 99 98 63
0 0 0 0 0 0 5 5 3 0 0 0 0 0 0 0 0 0 0 0 0 0 0 0 0 0 0 0 1 34 33 10 17 11 6 3 13 100 50 45 28 38 39
0 0 0 0 1 5 10 5 5 5 5 0 0 0 0 0 0 0 0 0 0 0 0 0 0 0 0 0 0 2 5 5 15 44 6 5 24 81 15 46 76 36 85
0 0 0 5 5 5 5 5 24 54 4 5 0 0 0 0 5 3 0 0 2 0 0 0 0 0 0 0 0 1 5 4 5 5 27 29 25 24 71 51 82 77 77
0 0 0 0 5 5 5 5 9 86 12 5 4 0 0 0 5 0 0 0 5 3 0 0 0 0 0 0 0 0 1 6 88 44 7 99 97 91 100 100 100 100 100
0 0 0 0 5 5 5 5 5 73 24 5 5 0 0 2 10 4 0 0 5 7 4 0 0 0 0 0 3 2 6 0 1 73 5 100 100 100 98 100 100 100 100
0 0 0 0 0 5 5 7 13 7 5 5 1 0 0 37 5 3 12 27 29 60 6 2 0 0 0 24 41 68 59 41 30 37 55 8 82 74 89 100 100 100 100
0 0 0 0 0 0 5 5 5 5 5 5 5 0 0 0 5 0 0 0 5 5 48 14 6 5 3 4 27 46 75 100 95 79 99 84 15 97 100 73 28 37 99
0 0 0 0 0 0 1 5 10 5 5 5 5 0 0 4 5 2 0 0 0 5 5 5 5 3 0 5 68 88 100 100 100 95 95 100 58 85 93 99 48 5 5
0 0 2 4 5 2 9 0 43 5 5 5 5 4 0 2 0 5 1 0 7 10 10 30 82 59 51 48 98 100 100 100 100 100 62 100 100 99 81 5 10 43 89

GFSMA_prec_cloud_048.txt.gz
Cloud_Cover
24 48 10 79 65 26 5 27 3 0 0 0 63 90 50 0 3 77 79 32 52 83 6 11 5 4 5 6 4 0 2 1 0 0 0 0 1 2 2 5 27 5 4
53 15 0 29 75 40 46 53 0 29 36 16 2 66 84 0 0 3 99 5 5 5 5 5 0 0 0 5 83 84 37 5 58 73 16 5 5 5 43 93 100 100 100
88 0 10 3 54 0 0 0 1 2 88 62 51 24 50 14 0 5 58 70 32 22 5 91 5 0 0 0 2 5 5 5 92 59 100 100 100 92 35 76 100 100 89
38 10 2 6 5 0 1 78 80 66 4 35 92 82 43 41 0 0 23 57 22 98 12 80 11 5 5 10 1 7 5 5 6 5 37 94 76 65 95 32 100 100 100
0 26 78 65 0 8 52 99 70 66 54 41 22 33 35 52 15 14 3 9 3 13 55 7 5 5 1 1 5 6 7 28 9 8 5 99 6 51 18 83 100 100 100
0 0 52 0 42 0 0 77 12 3 96 80 13 12 43 32 0 4 19 12 0 0 11 54 82 64 4 5 5 4 5 8 5 5 16 30 83 92 100 100 100 100 100
0 0 18 4 0 25 59 0 0 0 9 2 4 0 0 0 3 2 13 4 0 3 0 0 12 53 46 5 4 3 5 97 54 85 86 100 100 85 98 100 84 100 99
0 4 4 3 30 15 0 0 0 0 0 0 78 19 39 31 18 40 3 15 8 1 0 0 0 10 2 2 4 4 10 84 5 57 57 100 100 98 27 95 100 94 49
0 0 2 6 5 7 6 0 2 1 14 0 5 88 72 100 76 0 0 0 0 0 0 0 0 0 2 17 4 3 5 6 22 9 85 100 100 98 92 100 100 91 100
3 0 89 1 21 49 0 4 0 0 4 0 0 0 12 10 100 80 0 0 0 0 0 0 0 0 0 2 4 5 5 5 3 5 15 100 36 100 100 100 100 100 100
0 0 57 5 0 0 4 11 0 0 0 10 27 0 0 11 0 98 68 0 0 0 0 0 0 0 0 0 0 0 4 5 14 5 26 5 8 43 69 100 100 100 100
0 0 0 0 0 0 0 2 0 0 0 0 0 0 43 99 37 29 17 4 0 0 0 0 0 0 0 0 0 0 1 5 62 35 52 87 23 44 34 100 100 100 100
0 0 0 0 0 0 1 6 0 8 0 0 0 0 0 0 0 1 2 0 0 0 0 0 0 0 0 0 0 0 2 2 22 5 11 100 100 71 78 92 100 94 91
0 0 0 0 0 0 0 0 0 4 7 0 0 0 0 0 0 0 0 0 0 0 0 0 0 5 5 4 0 0 0 1 4 5 8 78 97 100 100 55 100 77 71
0 0 0 0 0 0 0 2 0 9 8 4 6 1 0 0 0 0 0 0 0 0 0 0 0 2 58 12 5 4 0 0 5 5 12 5 22 100 100 100 93 100 86
0 0 0 0 0 0 0 0 0 3 15 18 0 0 0 0 0 0 0 0 0 0 0 0 0 0 0 14 5 8 7 5 5 5 5 82 85 99 60 84 100 90 100
0 0 0 0 0 0 0 0 0 0 6 5 3 0 0 0 0 0 0 0 0 0 0 0 0 0 0 0 0 5 5 5 5 5 5 3 1 46 82 40 26 45 100
0 0 0 0 0 0 0 0 0 0 0 0 0 0 0 0 0 0 0 0 0 0 0 0 0 0 0 0 0 0 0 4 5 7 90 98 34 5 4 5 79 100 94
0 0 0 0 0 0 0 0 0 0 0 1 5 3 0 0 0 0 5 2 0 0 0 0 0 0 0 0 0 0 0 5 32 94 99 85 82 100 10 5 76 96 50
0 0 0 0 0 0 1 0 0 0 5 5 5 5 1 0 0 0 5 5 0 0 0 0 0 0 0 0 0 0 0 0 0 6 32 100 100 100 100 100 92 100 100
0 0 0 0 0 0 0 5 5 0 5 5 5 5 5 0 0 4 5 14 0 0 0 0 3 0 0 0 0 0 0 0 0 27 46 84 100 96 87 94 100 100 100
0 0 0 0 0 0 0 4 5 5 5 5 5 5 5 3 3 2 53 59 0 0 0 0 1 4 1 0 0 2 0 0 0 59 56 35 100 100 100 100 100 100 100
0 0 0 0 0 0 0 0 0 5 5 5 5 5 5 5 2 0 10 25 13 1 14 0 3 5 4 5 3 0 3 5 20 43 15 25 73 41 57 34 95 100 100
0 0 0 0 0 0 0 0 0 0 5 5 5 5 5 5 5 2 0 2 1 0 2 1 3 5 14 17 65 70 36 42 66 90 100 57 51 24 66 100 100 100 92
0 0 0 0 0 0 0 0 5 0 0 4 5 42 12 5 5 5 0 0 5 1 2 0 0 0 0 5 45 59 86 98 91 53 100 63 29 69 81 45 3 11 97
0 0 0 0 0 0 0 0 48 0 0 0 4 5 5 2 5 20 12 0 0 0 1 24 53 100 100 100 49 100 100 100 100 100 62 78 91 100 100 100 69 7 23

GFSMA_prec_cloud_051.txt.gz
Cloud_Cover
75 88 20 87 95 62 47 71 7 90 0 26 44 100 27 22 10 90 44 0 0 1 5 5 9 89 38 18 6 7 4 0 3 5 6 27 6 5 46 88 100 100 100
87 12 26 96 52 100 100 58 89 89 81 69 34 96 100 20 48 100 1 0 0 0 0 0 5 3 14 5 58 81 60 5 6 7 5 86 43 97 100 100 100 100 100
0 58 88 0 99 15 1 0 1 100 7 69 100 14 31 91 32 72 100 100 23 18 0 0 0 4 5 4 5 23 5 6 31 11 15 10 95 100 100 100 100 91 100
0 2 58 50 88 51 100 67 100 50 53 56 78 99 84 25 42 33 76 100 22 56 15 0 0 0 0 9 13 9 5 5 8 6 5 12 32 100 99 98 100 100 95
51 60 88 23 64 4 83 11 20 47 34 10 79 65 58 39 100 79 54 24 14 97 57 12 0 0 0 4 5 5 4 8 36 5 4 12 94 100 100 100 100 100 100
16 62 18 0 12 6 93 46 78 100 13 100 76 39 78 73 6 53 12 64 0 0 55 3 41 23 0 0 5 5 5 13 87 17 5 76 80 9 73 5 88 22 98
1 46 36 5 31 64 54 0 0 0 36 6 0 0 1 1 38 12 10 28 8 11 0 0 40 28 64 2 5 4 5 5 8 100 7 5 5 11 8 5 5 22 81
1 0 70 68 85 62 0 0 63 80 29 89 90 76 100 76 41 78 3 1 5 22 32 5 0 9 6 5 5 5 5 100 96 26 34 50 5 66 46 100 100 100 100
21 36 84 66 4 54 45 0 0 25 69 20 23 61 100 97 61 0 0 16 8 41 0 0 0 0 1 6 2 4 24 6 54 58 23 100 100 22 100 54 100 100 100
27 87 7 56 100 21 97 37 36 34 91 11 6 9 56 24 87 89 0 1 0 0 1 2 3 0 0 1 4 1 32 9 64 55 91 100 70 100 100 99 99 100 100
0 92 68 2 0 4 3 24 27 0 5 93 99 0 0 3 30 28 100 7 2 0 0 0 1 0 0 0 5 3 5 95 6 21 92 100 97 100 77 92 100 100 100
0 1 0 3 2 6 4 0 0 0 5 10 17 9 100 20 30 25 53 11 8 0 0 0 0 0 0 0 0 0 2 5 7 84 5 94 72 96 93 100 100 100 100
13 0 0 0 1 0 8 19 0 7 0 0 0 2 22 15 27 41 14 10 10 0 0 0 0 0 0 0 0 0 0 4 5 100 94 96 52 78 89 100 100 100 100
0 8 0 0 2 26 1 11 0 0 0 0 0 0 5 6 0 0 0 6 4 25 0 0 0 4 0 2 0 0 0 5 5 100 100 100 45 77 89 100 100 64 100
1 0 0 0 0 0 5 9 0 0 77 0 4 0 0 4 0 0 0 0 0 8 10 0 0 0 0 0 0 0 0 0 4 0 33 100 92 98 100 100 100 20 84
0 73 0 0 0 0 0 0 4 0 0 0 0 0 0 0 0 0 0 0 0 0 0 0 0 0 0 0 0 0 0 0 0 0 2 4 43 84 81 96 100 31 52
0 0 0 0 0 0 0 0 0 40 0 0 0 0 0 0 0 0 0 0 0 0 0 0 0 0 0 0 0 0 5 47 82 74 80 25 5 5 5 11 25 83 100
0 0 0 0 0 0 0 0 0 0 9 0 0 0 1 3 0 0 0 0 0 0 0 0 0 0 0 0 0 0 1 11 39 54 100 91 92 59 77 9 22 7 15
0 0 0 0 0 0 0 0 0 0 0 0 0 0 5 5 3 0 0 5 0 0 0 0 0 0 0 0 0 0 0 0 0 3 0 4 5 30 96 100 100 97 58
0 0 0 0 0 0 0 0 0 0 0 0 0 0 2 5 5 5 0 4 8 3 0 0 0 0 0 0 0 0 5 4 5 3 0 23 99 84 100 100 100 100 100
0 0 0 0 0 0 0 0 0 0 0 0 0 0 0 2 5 5 5 0 0 3 2 0 0 0 4 0 4 2 0 0 0 1 3 80 70 50 97 97 14 80 73
0 0 0 0 0 0 0 0 0 0 0 0 0 0 5 0 0 5 5 5 0 0 4 5 0 1 0 0 5 5 5 4 3 32 39 0 62 1 60 99 100 100 100
2 2 5 2 0 0 0 0 0 0 0 0 1 5 5 4 1 0 12 6 5 1 2 3 5 4 0 0 0 0 9 5 6 6 7 31 38 39 21 82 93 30 5
5 5 5 5 0 0 0 0 0 0 0 0 0 0 3 5 5 3 0 4 5 5 4 3 0 0 0 0 0 51 39 49 42 32 73 100 99 52 85 31 0 0 0
0 0 5 0 0 0 0 0 0 0 0 0 0 0 0 0 0 0 0 0 0 2 5 2 1 0 0 0 67 69 52 97 97 60 48 52 12 89 99 35 0 0 0
0 0 0 0 0 0 3 0 6 0 0 0 0 0 0 0 0 0 0 0 0 5 5 18 7 25 41 7 4 62 73 99 100 100 47 87 99 100 100 100 95 3 0

GFSMA_prec_cloud_054.txt.gz
Cloud_Cover
80 16 65 99 86 95 53 68 45 3 32 70 45 27 25 88 0 0 0 0 0 0 0 10 11 95 19 28 5 4 4 35 92 93 100 100 100 100 100 100 100 36 65
46 8 2 83 76 56 74 97 49 48 100 14 27 59 75 0 82 21 11 4 0 0 0 0 5 5 49 74 31 34 52 100 100 100 100 100 100 100 100 99 100 40 14
0 38 20 60 99 0 0 0 13 87 24 24 73 84 15 2 30 100 78 5 10 0 0 0 1 17 26 28 74 47 72 14 51 81 58 40 7 94 100 74 100 80 100
0 79 6 59 0 54 80 100 56 1 99 31 31 56 62 0 2 11 27 48 0 77 0 0 0 4 5 6 5 5 5 5 5 5 94 60 97 66 7 24 48 100 94
13 84 42 17 96 86 70 8 0 1 20 94 92 53 4 94 100 25 0 10 0 0 0 0 0 0 0 2 4 4 7 4 3 4 6 67 100 78 5 20 32 45 17
91 39 31 0 0 78 83 4 47 65 77 100 100 37 97 49 6 0 18 1 0 1 11 0 0 1 0 2 0 4 1 0 4 5 4 5 6 14 6 100 87 97 100
100 99 0 0 58 1 54 0 53 67 99 75 1 0 3 3 7 1 98 6 29 17 0 0 0 0 0 4 4 4 5 5 5 5 5 5 5 33 100 100 100 100 100
1 0 37 67 6 76 16 0 1 7 81 5 0 19 100 54 100 88 2 25 86 52 9 0 0 0 0 2 5 3 5 63 33 100 60 56 43 100 94 100 100 100 100
8 57 4 25 1 39 0 0 2 98 5 74 100 2 79 95 100 0 0 0 0 3 1 0 0 0 1 3 5 46 19 97 66 99 100 94 95 71 100 99 100 100 100
88 5 0 9 0 60 69 0 0 65 26 0 0 35 46 48 97 79 1 0 0 1 0 0 0 0 0 3 5 59 97 96 76 100 100 100 100 100 100 100 100 100 94
10 60 3 4 0 1 1 2 0 2 0 91 3 0 0 0 52 100 96 0 0 0 0 0 0 0 0 0 0 0 4 100 98 82 100 90 100 100 100 78 100 55 42
4 99 0 0 0 17 5 0 0 0 0 43 65 94 51 0 77 76 66 16 0 0 0 0 0 0 0 0 0 0 4 64 100 100 95 100 100 95 77 95 92 43 73
0 0 0 5 0 0 1 4 0 0 0 0 0 7 27 95 26 100 99 41 53 0 0 0 0 0 0 0 0 0 0 2 16 18 10 42 96 100 100 97 100 100 100
38 0 0 0 0 0 0 0 0 0 0 0 0 0 0 0 0 0 0 0 0 57 0 0 0 0 0 0 0 1 5 0 0 0 3 100 20 100 100 98 100 100 100
28 30 0 0 0 0 0 0 0 0 0 0 0 0 0 0 72 0 0 0 0 0 12 0 0 0 0 0 0 0 0 0 0 0 1 2 12 12 36 32 100 100 98
8 79 21 0 0 0 0 0 0 0 0 0 0 0 0 0 0 7 0 0 0 0 0 0 0 0 0 0 1 4 10 56 90 5 5 5 5 5 44 22 3 4 5
0 38 7 0 0 0 0 0 0 3 0 0 0 0 0 0 0 0 0 0 0 0 0 0 0 0 0 0 0 0 7 50 55 4 4 7 80 98 100 94 90 97 66
0 0 0 0 0 0 0 0 0 0 0 0 0 0 0 0 5 5 1 0 0 2 0 0 0 0 0 0 0 0 0 0 2 2 2 4 11 100 100 100 100 84 97
0 0 0 0 0 0 0 0 0 0 0 0 0 0 0 0 2 5 5 5 1 0 0 0 0 0 0 0 0 1 5 5 2 1 0 0 1 0 26 72 97 39 60
0 0 0 0 0 0 0 0 0 0 0 0 0 0 0 0 0 0 2 5 5 5 2 0 0 0 0 0 0 0 2 3 5 8 5 5 8 49 58 31 33 98 100
0 0 0 0 0 0 0 0 0 0 0 0 0 0 0 0 0 0 0 0 3 5 5 6 0 0 0 0 0 0 0 5 5 6 42 5 14 73 74 63 9 53 100
0 0 0 0 0 0 0 0 0 0 0 0 0 0 0 0 0 0 0 0 0 5 5 5 18 23 0 2 5 0 0 0 2 58 46 60 6 5 5 5 93 10 5
0 0 0 0 0 0 0 0 0 0 0 0 0 0 0 0 0 0 0 0 0 0 5 5 15 78 32 35 22 5 4 0 2 5 100 100 100 7 2 40 33 22 38
0 0 0 0 0 0 0 0 0 0 0 0 0 0 0 0 0 0 0 0 0 0 0 4 5 5 31 70 57 32 15 94 98 61 100 98 100 90 95 100 100 74 57
0 0 0 0 0 2 4 2 0 0 0 0 0 0 0 0 0 0 0 0 0 0 0 0 0 5 5 5 68 100 100 98 36 45 91 98 100 100 100 99 38 36 11
0 0 0 0 0 0 0 0 0 0 0 0 0 0 0 0 0 0 0 0 0 0 0 0 0 0 37 0 11 87 76 88 94 100 91 100 100 100 100 0 0 0 0

GFSMA_prec_cloud_057.txt.gz
Cloud_Cover
97 99 43 88 88 0 1 1 0 3 0 1 64 38 90 87 0 0 0 0 0 4 8 67 94 26 55 44 50 36 37 65 100 99 9 6 98 70 14 5 7 17 94
91 0 4 44 14 14 13 0 67 100 2 50 100 52 0 0 50 15 2 0 0 0 6 5 5 15 59 6 14 10 80 38 35 5 15 5 5 9 36 61 96 81 90
1 78 12 42 14 8 0 4 0 0 0 89 39 46 0 0 88 0 1 0 0 0 0 0 1 9 19 11 5 5 5 5 5 5 6 5 76 100 92 100 100 95 92
11 40 0 1 0 46 69 71 30 99 18 63 70 82 10 4 15 0 0 0 0 0 0 0 0 5 5 5 4 0 1 3 15 5 9 9 5 61 30 40 100 21 6
30 0 0 24 0 75 0 0 46 4 56 26 0 0 43 97 11 0 0 0 0 0 0 0 0 1 3 4 0 0 0 0 24 67 100 100 48 12 40 22 85 99 100
6 4 0 0 10 61 0 0 37 16 96 94 10 100 5 0 0 0 0 0 0 0 0 0 0 0 0 3 0 0 0 0 0 5 5 5 7 16 41 97 100 100 100
1 0 0 0 1 71 0 96 3 14 54 100 1 0 0 100 100 0 0 0 0 0 0 0 0 0 0 0 0 5 6 5 5 5 5 5 5 20 94 100 100 100 100
4 0 1 0 0 0 0 0 0 54 88 1 0 94 42 52 4 1 0 0 0 0 0 0 0 0 0 2 3 5 5 39 5 87 88 65 70 97 6 5 100 100 100
0 8 2 77 0 0 0 0 0 0 0 2 0 41 19 34 0 23 91 0 0 0 0 0 0 0 0 2 12 9 6 5 51 96 44 53 48 88 87 100 100 100 100
3 5 3 1 0 59 0 0 16 0 0 8 0 56 23 5 0 0 16 2 0 0 0 0 0 0 0 0 2 5 12 60 20 72 100 92 79 33 100 100 100 100 100
5 6 4 0 0 5 0 0 16 19 0 0 0 0 0 75 6 6 0 0 0 0 0 0 0 0 0 0 5 5 38 8 5 29 16 100 97 100 100 100 100 100 100
7 44 0 0 0 3 1 3 0 0 0 0 0 0 1 100 0 82 13 0 0 0 0 0 0 0 0 0 0 0 3 4 5 38 63 98 98 58 100 83 86 99 100
1 0 0 0 0 0 0 2 0 0 0 5 0 64 0 0 0 41 8 0 0 0 0 0 0 0 0 0 0 0 0 1 4 0 4 13 65 73 96 100 100 100 100
0 0 0 0 0 0 0 0 0 0 0 0 0 0 0 0 0 0 0 0 0 0 0 0 0 0 0 0 0 0 0 0 0 0 4 0 5 6 98 100 100 100 70
0 0 0 0 0 0 0 0 0 0 0 0 0 0 0 0 0 0 0 0 0 0 0 0 0 0 0 0 0 0 4 5 5 5 5 5 21 100 100 94 53 99 85
0 0 0 0 0 0 0 0 0 0 0 0 0 0 0 0 0 0 0 0 0 0 0 0 0 0 0 0 0 0 36 4 3 5 5 25 92 100 100 100 99 100 100
0 0 0 0 0 0 0 0 0 0 0 0 0 0 0 0 0 0 0 0 0 0 0 0 0 0 0 0 0 0 1 0 6 2 2 4 32 10 98 100 100 100 100
0 0 0 0 0 0 0 0 0 0 0 0 0 0 0 0 0 0 0 0 0 0 0 0 0 0 0 0 0 0 5 4 5 6 5 5 28 36 5 57 98 86 99
0 0 0 0 0 0 0 0 0 0 0 0 0 0 0 0 0 0 0 0 1 4 3 5 2 0 0 0 0 0 0 0 0 5 68 98 86 99 98 70 9 71 88
0 0 0 0 0 0 0 0 0 0 0 0 0 0 0 0 0 0 0 0 0 0 3 5 5 5 5 3 2 5 2 0 0 0 0 0 5 84 84 68 32 7 13
0 0 0 0 0 0 0 0 0 0 0 0 0 0 0 0 0 0 0 0 0 0 0 5 5 5 22 23 10 5 2 6 91 68 4 39 5 6 65 21 46 100 100
0 0 0 0 0 0 0 0 0 0 0 0 0 0 0 0 0 0 0 0 0 0 0 0 5 5 43 15 14 100 100 97 19 100 93 5 5 16 96 100 76 100 100
0 0 0 0 0 0 0 0 1 0 0 0 0 0 0 0 0 0 0 0 0 0 0 0 1 1 2 5 43 92 100 100 100 99 100 6 5 5 79 100 43 91 0
0 0 0 0 0 0 0 0 1 0 0 0 0 0 0 0 0 0 0 0 0 0 0 0 0 0 0 0 3 5 22 62 100 60 78 13 4 10 72 100 87 0 0
0 0 0 0 0 0 0 0 0 0 0 0 0 0 0 0 0 0 0 0 0 0 0 0 0 0 0 0 0 3 71 99 83 54 16 16 35 79 100 94 5 0 0
0 0 0 0 0 0 0 0 0 0 0 0 0 0 0 0 0 0 0 0 0 0 0 0 0 9 39 0 0 2 70 79 17 71 8 80 100 92 100 47 2 0 0

GFSMA_prec_cloud_063.txt.gz
Cloud_Cover
4 1 4 0 0 0 0 0 0 0 0 0 0 0 0 0 0 11 15 0 0 3 6 6 3 4 6 8 5 7 5 20 25 36 85 5 14 8 45 96 86 100 100
12 0 53 28 0 0 0 0 0 0 0 0 0 0 0 0 0 2 4 0 0 0 4 5 7 5 14 5 5 16 93 28 8 5 5 5 5 24 41 100 100 100 100
1 4 6 8 0 0 86 9 0 0 7 0 0 0 0 0 0 0 0 1 0 1 16 4 5 5 5 5 9 64 5 9 5 9 41 96 41 7 14 100 100 100 100
10 0 0 0 0 0 0 0 0 0 0 0 0 0 0 0 0 0 0 0 0 0 0 3 2 0 3 5 3 5 5 5 26 30 96 51 45 56 93 94 92 100 100
10 0 0 0 0 0 0 0 0 0 0 0 7 0 0 0 0 0 0 0 0 0 0 0 0 0 0 5 5 5 8 4 5 12 10 62 92 81 90 100 100 100 100
0 0 0 0 0 0 0 0 0 0 0 0 0 0 0 0 0 0 0 0 0 0 0 0 0 0 0 5 4 5 2 5 5 5 18 87 100 98 100 100 100 100 100
1 0 0 0 36 0 0 0 0 2 0 0 0 0 0 0 0 0 0 0 0 0 0 0 0 10 6 0 5 5 5 5 5 62 92 100 100 100 100 100 100 100 100
2 0 0 0 0 0 0 0 0 7 0 0 0 94 29 0 0 0 0 0 0 0 0 0 0 0 5 5 5 5 5 4 5 18 95 100 100 100 100 98 100 100 100
4 5 0 0 3 0 0 0 0 4 15 0 0 0 2 1 0 0 0 0 0 0 0 0 0 1 5 5 5 5 5 13 52 34 9 34 37 89 98 100 100 100 100
1 8 0 3 0 0 0 0 3 82 0 0 0 0 0 0 0 0 0 0 0 0 0 0 0 0 1 4 5 6 64 68 61 79 95 67 52 43 17 60 99 93 99
4 62 3 3 0 0 0 0 0 0 0 0 12 0 0 0 0 0 0 0 0 0 0 0 0 0 0 5 5 5 5 5 55 89 98 97 67 14 52 79 100 100 100
6 8 1 1 0 0 0 0 0 0 0 0 36 0 0 42 3 0 0 0 0 0 0 0 0 0 3 4 5 0 0 2 0 10 6 100 100 100 100 100 100 100 100
2 5 0 0 0 0 0 0 0 0 0 0 0 0 0 22 14 0 0 0 0 0 0 0 0 0 4 3 4 0 0 2 8 87 100 100 100 100 100 100 94 100 100
1 5 0 0 0 0 0 0 0 0 0 0 0 0 0 0 0 0 0 0 0 0 0 0 0 0 0 0 0 0 4 1 5 5 28 100 73 99 100 98 78 100 100
0 0 0 0 0 0 0 0 0 0 0 0 0 0 0 0 0 0 0 5 0 0 0 0 0 0 0 0 0 3 1 4 5 5 5 32 100 100 100 86 96 87 100
4 0 0 0 0 0 0 0 0 0 0 0 0 0 0 0 0 0 0 0 0 5 5 5 2 0 0 0 0 0 0 0 0 0 0 5 78 99 100 93 100 100 100
8 48 0 0 0 0 0 0 0 0 0 0 0 0 0 0 0 0 0 0 0 2 5 4 5 2 0 0 0 4 13 5 5 5 5 5 18 19 17 38 95 70 100
0 0 0 0 0 0 0 0 0 0 0 0 0 0 2 5 4 0 0 0 0 0 0 0 0 0 0 0 0 0 1 5 5 5 5 6 22 6 5 6 12 19 99
0 0 0 0 0 0 0 0 0 0 0 0 0 5 5 23 16 5 0 0 0 0 0 0 0 0 3 0 0 0 0 0 2 9 5 34 6 4 0 0 0 4 10
0 0 0 0 0 0 0 0 0 0 0 0 2 5 23 68 78 24 2 0 0 0 0 0 0 0 2 0 0 0 0 0 0 5 2 5 15 13 31 12 6 17 44
0 0 0 0 0 0 0 0 0 0 0 1 5 18 24 44 61 94 5 0 0 0 0 1 4 4 0 0 0 0 4 0 0 0 1 1 0 0 4 5 5 6 5
0 0 0 0 0 0 0 0 0 0 0 0 1 0 5 46 68 44 0 0 0 0 0 1 0 2 0 3 0 0 0 0 14 0 56 82 5 39 13 6 79 43 5
0 0 0 0 0 0 0 0 0 0 0 0 0 0 4 10 4 0 0 3 1 5 3 0 1 4 0 0 0 0 0 5 11 0 60 74 75 61 51 20 9 4 5
0 0 0 0 0 0 0 0 0 0 0 0 0 0 0 1 0 0 0 4 5 5 4 5 5 5 5 3 2 0 0 4 18 18 100 97 55 12 75 59 5 5 4
0 0 0 0 0 0 0 0 0 0 0 0 0 0 0 0 0 0 0 1 42 11 32 5 5 5 5 5 5 3 21 48 15 76 96 96 6 52 100 97 5 5 5
0 0 0 0 0 0 0 7 18 0 0 0 0 0 0 0 0 14 2 0 15 7 22 5 5 37 77 100 28 9 16 98 100 96 36 65 27 100 100 95 20 41 6

GFSMA_prec_cloud_069.txt.gz
Cloud_Cover
4 0 0 0 0 0 0 0 0 0 0 0 0 3 36 31 99 21 1 0 0 0 0 3 8 2 5 5 5 6 5 5 5 7 19 96 87 50 89 99 100 100 100
0 0 0 0 0 0 0 1 0 0 0 0 0 0 5 5 33 35 68 11 12 5 5 46 28 27 32 97 28 25 8 5 10 15 6 7 61 93 52 74 100 100 100
0 92 0 0 0 0 0 0 0 0 0 0 0 0 0 4 3 12 14 37 36 20 18 99 100 100 65 5 5 5 45 100 98 19 61 51 39 22 100 100 100 100 100
0 0 23 0 0 0 0 0 0 0 0 0 0 0 0 0 3 5 9 11 65 68 86 100 99 92 88 9 10 6 58 7 32 97 95 40 96 98 100 100 100 100 100
0 0 0 0 0 0 0 0 0 0 0 0 0 0 0 0 0 0 4 5 5 8 51 69 9 5 5 18 5 5 6 36 7 59 100 100 100 100 100 100 55 90 81
0 0 0 0 0 0 0 0 0 0 0 0 0 0 0 0 0 0 0 3 3 2 5 29 26 14 7 8 5 47 45 46 66 24 34 95 100 100 86 68 18 78 45
0 0 0 0 0 0 0 0 0 0 0 0 0 0 0 0 0 0 0 0 0 0 0 5 5 5 50 14 52 12 6 31 21 60 49 58 6 5 58 5 32 100 100
0 0 0 0 26 0 0 0 0 0 0 0 0 0 0 0 0 0 0 0 0 0 0 0 4 5 5 12 5 27 68 82 45 26 25 35 69 97 60 100 100 100 100
0 0 0 0 0 0 0 0 0 0 0 0 0 0 0 0 0 0 0 0 0 0 0 0 2 3 1 2 4 5 5 65 10 98 100 100 100 100 100 68 91 100 100
0 0 0 0 0 0 0 0 0 0 0 0 0 0 0 1 0 0 0 0 0 0 0 0 0 0 0 0 0 0 3 5 61 100 100 100 100 100 15 100 61 100 100
3 0 1 4 0 0 0 0 0 40 1 0 0 0 0 6 0 0 0 0 0 0 0 0 0 0 0 0 1 6 95 100 100 79 100 100 99 46 100 99 88 100 100
1 0 0 3 0 0 0 0 0 0 0 0 0 0 0 46 0 0 0 0 0 0 0 0 0 0 4 5 34 86 100 49 98 69 97 100 100 100 68 87 96 85 100
0 0 0 3 0 0 0 0 0 0 0 0 0 0 0 2 0 0 0 0 0 0 0 0 0 0 0 0 0 4 32 5 10 6 9 22 6 5 12 15 5 45 100
0 0 0 0 0 0 0 0 0 0 0 0 3 0 0 0 0 0 0 0 0 0 0 0 0 0 4 5 5 5 13 5 6 10 86 94 95 59 5 63 48 5 64
0 0 0 0 0 0 0 0 0 0 0 0 0 0 0 0 0 0 0 0 0 0 0 0 0 0 4 4 4 5 6 7 77 100 55 36 5 34 22 5 5 5 52
0 0 0 0 0 2 5 5 0 0 0 0 0 0 0 5 5 0 0 0 0 0 0 0 0 0 0 0 0 0 0 0 1 3 0 0 0 0 2 4 1 0 3
0 0 0 0 0 0 0 0 0 0 0 0 0 0 0 5 5 4 0 0 0 0 0 0 0 0 0 0 0 0 0 0 0 0 0 0 0 1 5 5 5 5 5
0 0 0 0 0 1 0 0 4 0 0 0 0 0 1 5 5 4 0 0 0 0 0 0 0 0 0 0 0 0 0 0 0 0 0 0 1 5 18 88 99 88 40
0 0 0 0 0 0 0 0 0 2 0 0 0 0 0 3 6 5 5 0 4 0 0 0 0 0 0 0 0 1 0 0 4 5 5 5 8 97 100 100 100 84 88
0 0 0 0 0 0 0 0 0 0 0 0 0 0 0 2 4 5 5 3 5 0 0 5 5 0 3 1 0 4 3 0 0 4 72 97 100 86 100 100 100 99 70
0 0 0 0 0 0 0 0 0 0 0 0 0 0 0 0 0 5 5 2 5 5 5 2 7 30 57 5 5 5 5 4 4 5 5 63 97 82 72 100 70 100 100
0 0 0 0 0 0 0 0 0 0 0 0 0 0 0 0 16 2 0 0 5 1 5 5 93 5 11 68 26 4 5 5 5 47 66 79 16 20 100 98 19 97 100
0 0 0 0 0 0 0 0 0 0 0 0 0 0 0 0 0 0 16 25 36 6 9 5 5 19 16 6 5 5 5 21 9 75 97 96 93 81 23 28 76 100 100
0 0 0 0 0 0 0 0 0 0 0 0 0 0 0 0 0 0 0 0 0 4 2 5 5 5 5 5 1 12 32 24 8 32 19 66 80 100 70 52 27 92 14
0 0 0 0 0 0 0 0 5 0 0 0 0 0 0 0 0 0 0 0 0 0 3 3 5 5 5 5 56 9 5 5 5 4 5 58 10 72 3 5 8 7 50
28 3 0 0 0 0 0 0 9 0 0 0 0 0 0 0 0 0 0 0 0 0 0 5 1 36 58 5 42 9 17 4 5 5 5 4 20 15 68 8 23 5 14

GFSMA_prec_cloud_072.txt.gz
Cloud_Cover
14 15 1 26 5 0 0 8 0 28 14 27 25 33 9 1 1 0 0 0 0 0 1 0 0 0 1 4 5 6 5 12 9 30 7 65 23 16 96 100 100 100 100
0 0 0 0 0 16 9 16 8 52 72 34 1 13 46 38 14 45 27 2 1 2 3 4 56 100 50 19 6 5 29 24 9 5 5 23 56 100 100 100 100 100 100
1 0 6 3 11 0 0 0 6 9 42 48 2 1 16 28 5 9 45 59 69 99 100 100 95 46 10 5 55 95 53 39 5 8 32 5 10 95 100 80 91 21 29
1 0 0 0 0 0 1 20 95 96 63 86 86 75 9 9 5 5 5 26 16 17 17 62 5 5 5 5 5 5 5 5 5 5 8 10 100 100 100 100 54 14 11
4 0 15 0 10 0 14 41 75 92 40 65 65 51 37 18 6 8 5 5 13 5 5 5 5 5 5 5 5 5 5 21 83 45 14 33 38 80 32 20 30 100 39
18 0 0 0 7 0 14 93 18 24 78 33 100 27 20 0 0 0 0 3 5 5 5 5 5 5 5 5 5 5 5 5 5 5 5 8 64 86 87 49 55 80 100
1 0 36 0 0 1 1 0 0 1 33 0 62 34 0 0 0 0 0 0 0 0 3 5 5 5 5 5 5 5 5 5 5 11 95 5 100 99 16 71 54 100 100
0 0 2 3 0 0 0 0 0 85 19 0 54 33 12 6 0 0 0 0 0 0 0 0 0 3 5 5 5 10 73 8 69 51 100 100 100 80 42 100 100 100 100
0 0 0 6 0 27 9 0 0 9 61 0 0 32 58 23 5 0 0 0 0 0 0 0 0 0 0 0 4 6 58 100 83 100 100 100 96 73 98 12 27 100 100
24 0 0 0 0 9 6 0 0 8 11 0 0 0 0 0 44 0 0 0 0 0 0 0 0 0 0 0 2 5 16 99 100 100 100 100 100 88 42 5 5 99 100
88 0 0 0 0 8 0 0 0 0 0 1 35 14 1 1 0 13 0 0 0 0 0 0 0 0 0 9 90 100 100 25 51 100 90 100 96 19 5 5 5 100 100
59 0 1 1 1 5 0 0 0 0 0 0 30 20 81 99 27 8 2 0 0 0 0 0 0 4 38 40 20 4 5 15 28 85 59 61 100 95 5 0 6 79 99
8 0 12 92 0 0 0 0 0 0 0 0 0 65 5 33 90 16 24 0 2 0 0 0 0 0 0 4 1 0 0 5 5 69 100 100 90 17 4 5 3 5 14
51 4 1 4 0 0 0 0 0 0 0 0 0 5 52 12 39 59 27 1 2 0 0 0 0 0 0 0 1 5 5 9 100 33 0 4 4 26 4 3 5 5 10
82 0 0 0 0 5 1 0 20 0 0 0 0 0 9 16 1 0 0 0 1 19 1 0 0 0 0 0 0 0 0 0 0 0 2 5 5 5 5 5 5 5 5
2 22 0 8 5 5 5 0 0 0 0 0 0 0 5 10 5 5 1 0 0 0 3 0 0 2 0 0 0 0 0 0 2 5 5 5 5 5 5 5 9 5 5
0 0 0 4 1 4 0 0 6 5 0 0 0 0 1 5 29 19 3 0 0 0 0 0 0 0 0 0 0 1 0 5 5 5 11 20 5 52 34 31 100 79 82
0 0 0 0 0 0 0 1 5 5 5 0 0 0 3 0 5 5 9 0 0 0 0 5 0 0 0 0 0 5 5 5 5 5 7 100 88 73 94 64 100 100 38
0 0 0 1 0 5 9 0 0 5 0 0 0 0 0 0 4 5 18 2 0 5 5 7 24 23 22 4 0 2 5 5 8 99 100 100 100 100 92 100 100 30 100
0 0 0 0 0 0 7 10 5 0 5 0 1 0 0 5 0 2 5 5 4 5 6 53 71 100 100 59 5 5 41 76 83 54 100 100 99 62 88 86 67 31 64
0 0 0 0 0 0 0 0 0 0 0 0 1 0 0 0 0 0 23 7 5 8 92 52 88 84 68 21 5 40 63 96 100 100 100 87 100 54 60 6 5 20 66
7 0 0 0 0 0 0 0 0 0 0 0 0 0 0 0 0 1 0 5 5 5 50 44 38 54 5 5 27 11 6 51 99 57 100 98 92 11 84 48 9 5 90
0 0 0 0 0 0 0 0 0 0 0 0 0 0 0 0 0 0 59 25 39 5 14 5 5 5 4 5 7 11 4 4 13 15 5 6 2 5 99 51 37 7 69
25 2 0 0 0 0 0 0 0 0 0 0 0 0 0 0 0 0 0 0 0 2 5 5 5 1 4 0 3 5 4 0 0 0 3 7 4 5 30 37 93 94 93
99 49 19 3 0 0 0 0 3 0 0 0 0 0 0 0 0 0 0 0 0 0 0 0 2 2 5 0 33 4 0 1 0 0 3 11 8 5 7 99 58 100 100
6 53 87 39 28 0 0 0 6 0 0 0 0 0 0 0 0 0 0 0 0 0 0 0 0 2 45 0 38 9 3 0 5 0 0 5 5 15 3 66 96 99 99

GFSMA_prec_cloud_075.txt.gz
Cloud_Cover
78 100 100 100 88 97 38 82 100 30 60 84 79 35 12 14 60 37 84 59 3 1 0 0 0 0 5 5 5 6 10 6 7 5 5 9 87 100 67 23 8 11 90
97 6 51 89 100 99 100 97 97 51 65 31 99 100 100 54 30 82 0 0 0 0 1 0 3 4 5 17 5 5 5 5 5 6 5 8 38 76 61 87 5 61 5
3 38 18 100 100 21 1 0 15 37 17 43 81 100 39 100 63 95 99 51 41 42 17 5 5 5 5 38 26 80 88 10 17 5 5 61 84 78 7 7 15 5 5
0 23 68 67 57 8 100 92 89 25 86 64 91 96 54 10 7 22 97 83 45 22 5 5 5 5 5 6 11 7 88 28 7 7 20 8 12 16 5 5 5 40 14
1 64 71 37 86 85 32 99 9 64 78 74 51 57 56 59 100 19 5 7 5 46 7 5 5 5 5 13 8 23 29 21 45 61 7 5 6 19 5 5 66 98 67
0 0 79 9 54 29 71 11 68 96 3 100 100 2 86 32 5 25 37 6 7 0 2 0 4 4 5 5 5 5 5 5 5 5 5 10 98 7 35 9 100 100 14
0 0 28 0 0 99 64 0 0 28 17 0 48 28 6 0 6 0 20 9 0 0 3 5 5 5 5 5 5 5 5 5 5 77 100 96 5 89 27 5 100 100 100
11 0 84 4 64 44 0 18 96 56 66 82 62 99 78 4 0 18 0 0 0 0 0 0 0 1 4 5 5 5 5 5 100 92 68 5 13 52 71 5 69 100 100
8 75 8 100 5 46 5 0 4 72 91 0 83 14 95 81 46 0 0 0 0 0 0 0 0 1 5 5 7 88 51 100 63 7 85 85 55 20 5 5 73 100 3
90 78 20 16 0 95 86 0 0 77 70 31 2 1 0 44 19 0 0 0 0 0 0 0 0 0 1 4 5 39 57 100 59 5 5 7 12 5 5 5 16 100 0
54 99 61 42 4 0 1 99 14 0 36 12 95 37 0 0 28 56 0 0 0 0 0 0 0 1 34 96 10 26 81 96 66 6 26 100 90 4 5 0 5 5 0
23 86 91 98 12 91 2 0 0 0 5 15 11 22 3 46 25 18 5 3 0 0 0 0 4 16 4 2 0 2 5 5 6 93 4 0 5 0 0 0 1 5 0
15 5 100 39 1 0 2 0 0 31 0 3 0 17 33 100 27 38 96 35 46 0 0 4 0 0 0 0 0 1 4 100 25 0 0 0 0 2 0 0 0 0 0
100 2 7 8 1 42 0 2 0 0 0 1 0 9 39 93 58 3 65 40 8 0 0 6 4 0 2 0 0 0 6 0 0 0 0 5 4 0 0 2 0 0 0
66 13 4 53 21 74 28 4 28 1 100 0 8 0 1 97 67 44 3 44 90 74 25 0 6 1 0 0 0 0 0 0 0 0 5 5 5 5 4 5 8 1 0
10 99 2 28 88 53 28 2 43 5 0 0 8 21 5 81 63 19 60 18 0 0 30 20 0 0 0 0 0 1 4 30 24 57 31 27 53 62 45 8 64 37 5
0 1 28 98 95 40 10 8 9 56 5 1 0 98 4 5 7 40 17 1 0 0 0 0 17 6 0 0 0 1 12 76 100 45 95 100 77 79 91 34 11 92 90
0 0 0 4 38 71 68 8 24 17 5 3 0 0 0 5 5 5 8 0 0 1 0 4 5 0 0 0 4 5 92 99 100 96 100 100 80 37 97 100 71 79 24
0 0 1 0 24 100 100 65 25 4 31 5 3 0 0 0 1 5 30 2 3 2 3 5 5 0 1 0 3 55 51 58 13 89 100 100 89 22 49 100 100 100 100
0 0 0 16 6 19 87 100 100 99 6 66 5 2 0 2 0 0 5 6 2 5 6 26 5 5 5 4 5 5 5 90 97 98 57 11 5 41 8 98 100 100 100
0 0 0 0 1 0 0 5 10 7 20 4 17 0 0 0 0 0 0 9 5 5 5 6 5 5 5 5 5 35 100 87 50 61 5 5 5 5 7 52 100 100 100
0 0 0 0 0 0 0 2 5 5 2 0 4 0 0 0 0 0 0 0 4 2 5 5 5 5 5 5 5 6 85 18 47 5 5 16 5 18 14 97 100 100 100
52 4 0 0 0 0 0 0 0 0 6 18 0 0 0 0 0 0 0 0 0 0 0 0 0 4 1 1 2 4 5 5 6 5 5 4 29 17 50 92 100 100 100
28 10 14 0 0 0 0 0 0 0 0 0 0 0 0 0 0 4 0 0 0 0 0 0 0 0 0 1 0 0 0 5 49 5 19 45 8 15 5 6 99 100 100
61 95 53 2 1 0 0 0 0 0 0 0 0 0 0 0 0 0 0 0 0 0 0 0 0 0 0 0 0 0 0 4 4 5 8 13 88 100 99 76 98 98 100
100 74 16 14 0 0 0 0 1 0 0 0 0 0 0 0 0 0 0 0 0 0 0 0 0 1 39 0 6 9 0 0 26 78 32 82 43 96 100 78 7 7 5

GFSMA_prec_cloud_078.txt.gz
Cloud_Cover
9 58 44 15 78 39 11 96 87 54 1 100 2 17 9 58 40 6 16 5 0 0 0 0 0 4 5 19 17 94 98 100 84 76 86 72 100 96 71 5 7 12 5
8 22 19 100 35 67 58 39 47 6 85 15 76 21 86 95 99 81 29 5 2 0 0 5 5 5 8 82 99 100 100 79 100 83 55 80 38 37 6 5 5 5 5
83 12 70 44 60 11 4 70 40 1 10 14 76 2 94 48 17 58 7 0 0 0 5 5 10 51 96 100 100 90 53 64 100 82 41 5 5 5 5 5 98 5 2
7 2 97 52 43 47 6 94 19 65 2 19 0 39 3 11 1 1 7 22 3 5 48 61 100 100 99 84 90 50 100 73 64 79 32 5 5 5 5 5 95 34 53
5 99 89 43 1 100 18 79 84 0 12 45 12 69 5 50 36 10 5 2 4 5 5 5 66 98 100 100 100 99 100 71 94 47 5 77 5 5 5 23 100 100 19
0 0 81 0 71 0 39 72 6 0 100 70 65 5 64 93 100 7 0 4 4 5 5 5 5 65 99 92 82 63 99 29 5 77 97 5 5 5 5 5 13 62 0
0 0 1 0 90 59 100 42 2 65 77 100 3 100 6 5 34 34 100 15 3 5 32 56 40 25 31 23 5 5 5 61 100 28 5 5 5 5 5 6 61 13 0
0 0 14 0 72 56 0 0 94 95 31 20 95 99 34 19 98 41 5 0 0 0 1 3 2 5 5 3 2 5 14 87 20 43 5 5 5 5 4 5 54 1 0
0 26 0 0 98 0 0 18 23 97 0 0 0 91 68 98 6 0 0 0 0 0 0 0 5 5 5 5 2 54 100 48 15 5 5 52 50 5 5 5 4 1 0
18 6 2 2 0 0 9 0 0 8 0 3 0 100 62 46 0 0 0 0 0 0 0 0 5 5 5 8 7 79 100 30 0 5 7 5 0 4 4 0 1 1 1
39 100 29 0 5 97 97 0 24 97 0 98 2 2 2 69 98 20 0 0 0 0 1 0 0 5 3 5 5 1 6 83 7 0 4 0 4 0 0 0 0 0 0
36 91 84 34 5 55 76 91 0 0 0 72 90 5 0 0 35 86 6 0 0 0 0 1 1 5 4 1 0 0 12 5 0 0 0 0 0 0 0 0 0 0 0
52 4 53 0 0 0 13 0 0 0 0 0 0 0 0 6 16 95 0 60 16 0 0 0 0 0 0 0 0 0 0 0 0 0 0 0 0 0 3 4 1 3 4
76 90 8 0 0 4 0 0 0 0 0 0 0 0 4 0 0 13 47 98 100 0 0 0 0 0 0 0 0 0 0 0 0 5 5 5 5 5 5 10 55 38 100
58 59 34 100 25 53 1 0 3 4 5 34 0 0 96 20 0 100 2 0 0 12 17 56 0 0 0 0 0 0 1 5 1 5 5 18 5 5 24 82 100 73 100
98 100 100 100 100 100 63 0 2 87 11 38 0 0 0 2 5 2 0 0 2 3 71 100 81 18 0 1 2 3 7 5 5 62 26 24 5 5 8 71 84 100 100
1 99 100 100 100 97 0 0 83 83 3 1 0 0 0 82 72 5 0 0 0 0 7 34 0 0 0 33 5 5 5 5 20 36 78 100 93 54 54 41 99 91 100
0 19 100 100 100 46 24 4 14 20 100 3 0 0 0 0 1 0 75 84 0 0 0 0 0 0 2 5 23 8 65 5 12 5 6 80 100 100 100 100 100 96 100
0 0 0 2 13 4 3 95 100 13 16 4 0 0 0 0 0 0 0 0 0 0 1 0 0 0 1 4 5 5 5 5 5 5 5 8 100 100 100 100 100 100 100
0 0 0 0 0 0 0 61 100 100 80 84 70 0 0 0 0 0 0 0 4 4 5 3 5 0 0 0 4 5 5 5 5 13 5 7 6 100 100 100 100 100 100
0 0 0 0 0 0 0 0 12 71 94 100 23 41 0 0 0 0 0 5 5 5 5 5 1 0 3 74 14 5 5 4 5 5 5 5 14 98 13 100 100 100 100
0 2 2 0 0 0 0 0 0 0 0 0 14 4 0 0 99 64 0 0 5 5 5 5 1 0 0 5 4 5 5 1 5 20 5 5 6 94 32 54 100 100 100
0 0 28 0 0 0 0 0 0 0 0 0 1 0 3 0 0 13 0 0 0 0 0 1 0 1 0 5 1 4 4 3 5 6 36 5 54 57 83 100 100 99 92
41 6 5 0 2 0 0 0 0 0 0 0 0 0 0 0 0 0 0 0 0 0 0 0 0 0 0 2 0 5 0 4 5 55 34 97 90 87 42 72 94 74 86
95 100 6 55 0 0 0 0 0 0 0 0 0 0 0 0 0 0 0 0 0 0 0 0 0 0 0 4 0 1 0 2 5 6 6 95 99 9 52 30 5 5 20
98 100 100 75 2 0 0 0 0 0 0 0 0 0 0 0 0 0 0 0 0 0 0 0 0 0 12 0 1 0 2 5 5 5 5 9 5 5 29 6 5 9 5

GFSMA_prec_cloud_081.txt.gz
Cloud_Cover
78 1 0 5 0 12 2 0 0 40 5 0 94 89 72 100 100 96 77 6 4 0 0 0 5 5 5 6 93 90 53 100 100 84 88 100 71 92 15 5 5 5 5
1 0 36 6 6 59 0 0 0 7 12 0 0 2 0 12 2 1 0 0 0 0 0 2 5 5 86 94 27 87 100 75 70 94 100 100 99 8 5 6 21 5 4
0 0 0 0 0 0 3 2 0 0 22 1 3 5 28 2 5 0 0 0 0 3 5 5 18 94 100 98 100 100 39 18 100 92 66 51 5 5 5 98 53 5 0
0 0 61 50 0 2 4 96 6 0 0 0 20 0 0 0 0 0 0 0 3 5 6 34 100 100 100 100 44 100 56 100 54 87 79 5 5 5 5 81 97 4 1
0 0 56 0 19 0 1 0 0 16 0 0 3 38 0 0 2 0 0 0 0 3 5 5 49 98 100 73 60 98 100 91 46 71 5 1 2 4 4 56 37 5 0
0 3 4 20 79 2 0 0 4 100 0 1 10 28 5 4 5 0 0 0 5 6 49 61 33 39 74 99 91 24 8 97 5 6 78 5 5 1 0 98 2 0 0
0 44 0 0 0 0 0 0 0 4 34 0 23 0 97 2 0 0 0 2 4 5 5 7 13 5 5 5 5 12 100 6 22 20 5 26 3 0 0 5 1 0 0
0 0 0 56 100 26 0 0 0 0 9 0 5 15 28 28 0 0 0 0 0 3 0 5 5 5 5 5 5 96 49 73 2 5 5 5 0 0 5 5 0 0 0
0 29 0 0 79 1 0 0 11 0 0 0 98 0 86 11 0 0 0 0 0 4 0 5 5 0 5 1 72 100 21 6 4 4 4 2 0 0 0 0 0 0 0
0 0 0 0 8 0 0 0 95 10 0 0 0 44 0 41 0 0 0 0 0 1 0 5 5 5 11 5 6 73 15 0 5 0 0 0 0 0 0 0 2 5 4
0 35 0 0 0 3 34 0 0 0 0 0 8 0 0 73 0 0 0 0 0 0 3 5 5 4 5 5 4 5 4 0 0 0 0 0 0 3 0 2 5 25 5
59 99 73 0 0 45 69 0 33 0 0 0 0 0 0 27 0 0 0 0 0 0 0 1 2 2 1 0 0 0 1 0 0 0 0 0 0 2 4 5 6 23 26
95 15 51 7 56 44 1 0 0 0 0 0 0 0 0 0 39 0 0 0 0 0 0 0 0 0 0 0 0 0 0 0 0 0 0 0 5 5 5 65 18 100 100
27 17 100 97 99 100 76 1 0 0 0 0 0 0 21 0 2 0 0 15 66 0 0 0 0 0 0 0 0 0 0 0 0 0 4 4 5 5 15 6 73 93 100
39 89 100 100 100 100 91 57 0 0 0 0 0 0 2 0 100 1 16 16 66 0 0 45 20 0 0 0 0 0 0 0 0 0 5 7 5 16 100 14 96 58 40
0 59 100 100 100 100 52 94 9 2 0 2 2 0 0 0 0 0 0 0 7 0 0 41 88 0 0 0 0 0 0 2 1 2 4 5 76 67 93 80 41 5 7
22 38 63 100 100 100 97 86 100 1 5 1 0 0 0 0 0 0 2 0 0 0 26 100 0 1 4 0 0 0 2 52 100 95 74 13 91 94 96 100 100 100 98
0 0 11 100 100 100 100 100 81 2 26 5 5 5 0 0 22 0 0 0 0 0 0 4 0 1 1 0 0 0 1 0 4 76 7 58 71 100 100 100 100 100 100
0 0 0 0 9 63 80 16 3 3 4 5 18 6 21 0 0 4 5 0 0 1 0 0 0 5 5 0 0 0 1 0 5 19 5 26 100 99 95 100 100 100 100
71 60 0 0 0 0 0 0 14 88 15 6 5 2 3 0 0 0 5 5 5 5 1 1 1 1 1 2 1 0 0 5 3 1 5 8 100 100 100 100 100 100 100
100 100 33 0 0 0 0 0 0 4 69 100 45 5 2 0 0 0 4 0 5 5 5 5 0 0 0 5 2 0 0 5 3 4 7 13 9 95 100 100 100 100 100
100 100 100 4 0 0 0 0 0 0 0 0 21 26 5 0 1 38 54 6 5 0 0 5 0 0 2 5 2 0 0 3 6 37 1 5 5 7 100 100 88 100 100
100 100 100 100 22 1 5 26 0 0 0 0 0 0 0 0 0 0 0 1 5 5 2 5 4 0 0 0 0 0 0 5 5 5 27 49 76 100 64 80 71 94 100
100 100 60 99 3 0 0 5 28 0 0 0 0 0 0 0 0 0 0 0 0 0 0 0 0 0 0 0 0 0 0 4 17 5 7 81 72 86 14 34 29 60 64
100 100 59 8 78 82 2 5 75 56 2 0 0 0 0 0 0 0 0 0 0 0 0 0 0 0 0 0 0 0 0 0 5 9 5 5 16 43 33 54 5 5 0
100 100 96 18 14 98 92 77 40 22 43 5 1 0 0 0 0 0 0 0 0 0 0 0 0 0 14 2 0 0 0 0 0 0 5 9 5 5 4 2 20 5 0

GFSMA_prec_cloud_084.txt.gz
Cloud_Cover
0 0 1 5 0 0 0 0 0 3 88 77 17 9 55 23 70 100 85 25 2 1 0 0 0 4 5 46 38 82 100 100 100 100 100 55 37 21 6 6 5 3 0
0 0 0 2 0 2 0 0 0 0 1 4 5 42 94 79 63 28 5 0 0 0 0 4 3 5 80 20 98 100 100 100 100 98 92 83 23 5 5 5 5 2 0
0 0 0 15 36 8 0 0 0 0 0 0 5 4 2 0 1 0 0 0 2 5 5 5 69 76 54 98 100 100 98 100 100 95 11 5 5 5 5 83 2 9 0
0 0 0 0 4 5 22 0 0 0 0 0 1 0 0 0 0 0 0 0 0 5 5 5 30 28 59 63 56 96 100 76 39 49 6 5 5 1 4 3 2 1 5
0 3 0 0 0 0 0 0 0 0 0 0 2 0 0 0 0 0 0 0 1 4 7 5 5 24 15 97 100 74 66 6 5 5 3 5 0 0 10 2 5 2 5
0 0 0 1 28 0 0 2 2 0 0 0 0 0 0 0 0 2 5 3 5 5 5 5 21 20 6 44 13 81 98 39 5 5 5 1 2 5 0 5 0 0 5
20 0 0 0 0 0 0 0 5 0 0 0 0 0 0 0 0 0 0 0 3 4 5 5 5 5 5 5 77 98 26 70 5 5 1 0 0 0 0 0 0 4 5
4 0 0 5 0 1 0 0 0 0 0 0 6 0 0 0 0 0 0 1 0 3 5 0 5 4 5 20 100 19 0 0 5 4 0 0 0 0 0 0 1 1 5
2 5 2 100 52 3 0 0 0 0 0 18 18 0 0 0 0 0 0 3 0 5 5 5 5 5 4 13 5 5 3 5 2 0 0 0 0 0 5 5 5 11 5
1 5 6 15 14 3 0 1 0 0 0 5 1 0 0 0 0 0 0 0 4 2 5 0 5 5 4 5 5 5 0 0 0 0 0 0 5 5 5 5 32 93 100
5 5 15 8 40 99 0 0 39 0 0 0 14 0 0 0 0 0 0 0 4 4 5 5 5 52 5 5 5 0 0 0 0 0 0 1 4 5 5 80 78 100 100
4 78 22 16 47 61 43 5 2 3 0 0 0 0 0 0 0 0 0 0 0 3 5 0 5 5 5 0 0 0 0 0 0 0 5 4 4 9 83 38 60 100 100
5 6 5 87 75 50 76 21 41 35 5 0 2 0 0 5 0 0 0 0 0 0 0 0 4 2 0 0 0 0 0 0 2 0 7 5 5 9 35 30 29 14 98
4 12 64 98 100 79 67 96 100 100 95 8 1 0 5 80 1 0 0 0 0 0 0 0 0 0 0 0 0 0 0 0 3 5 42 72 19 5 17 36 53 8 74
7 0 93 100 98 100 50 35 98 100 97 100 100 18 2 58 82 0 0 0 0 0 0 0 0 0 0 0 0 0 0 0 5 5 5 100 54 32 6 26 95 83 99
82 24 50 100 100 100 100 100 63 39 9 87 100 100 20 22 83 64 0 0 0 0 0 0 0 0 0 0 0 0 0 0 5 7 76 79 100 99 100 100 100 100 65
62 100 55 97 100 96 100 100 96 43 0 5 82 76 100 11 5 100 12 4 1 0 0 0 0 0 0 3 4 34 11 39 4 5 25 100 100 100 100 100 100 100 100
100 100 21 5 20 86 100 100 100 53 3 4 21 76 44 3 0 5 5 0 0 0 0 0 0 0 0 0 0 0 0 5 4 2 72 76 100 100 100 100 100 100 100
100 100 100 100 84 38 38 47 6 10 7 5 16 46 40 3 4 4 5 5 5 5 0 0 0 0 2 0 0 0 0 0 0 6 100 59 39 100 100 100 100 100 100
100 100 100 100 100 99 16 0 2 1 5 16 87 91 25 4 5 4 5 5 5 5 5 3 0 0 0 0 0 4 1 1 3 11 99 83 29 100 100 100 100 100 100
100 100 100 100 100 100 100 92 88 5 14 5 88 100 36 1 5 0 0 1 16 8 1 5 0 0 1 0 0 5 4 0 3 0 6 42 86 74 49 100 100 62 71
100 100 100 100 100 100 100 100 100 82 5 4 5 9 5 0 1 0 0 3 5 27 2 4 5 1 0 0 0 0 0 3 1 0 4 5 30 100 98 43 100 39 7
100 100 100 100 100 100 100 78 5 5 5 13 32 0 0 0 0 0 0 0 2 5 4 0 5 5 0 0 0 0 0 4 0 0 0 10 29 80 44 5 4 4 5
100 100 100 100 100 99 91 99 42 5 0 1 26 11 0 0 0 0 0 0 0 0 0 0 0 0 5 0 0 0 0 0 2 6 5 21 5 5 5 5 4 0 4
100 100 100 100 100 100 60 58 36 30 5 43 96 52 5 1 0 4 0 0 0 0 0 0 0 0 0 0 0 0 0 9 4 0 5 1 0 5 5 4 0 0 0
100 100 100 100 100 100 100 63 62 28 99 55 100 28 15 5 5 1 0 0 0 0 0 0 0 0 6 0 0 0 0 0 6 6 5 4 0 0 1 4 2 0 0

GFSMA_prec_cloud_087.txt.gz
Cloud_Cover
1 0 0 3 0 0 1 57 86 85 97 80 100 93 100 96 55 84 100 70 5 5 0 3 5 5 88 33 86 99 100 98 71 48 100 21 77 8 5 3 7 0 0
0 0 5 0 0 0 0 0 3 5 40 34 100 86 87 51 55 20 8 3 4 5 5 5 30 23 77 100 100 100 57 100 48 99 7 76 4 2 3 2 0 9 5
0 0 4 5 1 0 0 0 0 0 0 5 18 72 15 4 5 5 0 0 4 5 5 43 12 67 98 85 22 36 98 100 94 56 5 6 0 0 5 62 11 5 9
0 0 1 0 2 0 0 0 0 0 0 0 0 0 0 1 0 0 2 0 5 6 36 90 100 74 100 100 90 31 69 5 34 5 4 0 0 2 4 0 13 46 52
0 0 0 0 0 4 1 0 0 0 0 0 0 0 5 6 0 2 5 5 5 23 18 38 47 47 53 34 12 100 14 5 5 4 0 0 0 0 19 38 31 9 27
0 0 0 0 0 0 0 0 1 0 0 0 0 0 0 0 2 5 5 22 10 22 24 9 5 6 5 35 100 83 5 1 1 0 0 0 0 0 8 14 17 35 1
5 5 1 0 0 0 0 0 0 0 0 0 0 0 0 0 0 0 5 5 4 5 33 7 16 5 5 100 37 4 0 0 0 0 0 5 1 5 15 5 49 5 14
5 54 5 4 0 2 0 0 0 0 0 0 0 0 0 0 0 0 0 0 0 0 2 5 5 5 65 4 5 0 1 0 0 5 5 5 6 11 95 5 5 68 44
4 10 24 10 4 5 1 4 8 0 0 0 0 0 0 0 0 0 0 0 0 1 4 5 5 1 5 5 5 3 0 0 5 5 5 5 5 71 100 94 97 93 61
5 84 98 100 62 28 5 50 7 0 1 37 3 0 0 0 0 0 1 0 5 0 5 5 5 5 5 5 5 0 2 5 5 5 7 50 100 100 100 100 100 100 100
14 73 41 40 74 70 26 21 66 98 4 3 5 0 0 0 0 0 0 0 0 4 5 5 5 5 5 5 4 0 5 1 8 5 8 59 18 62 99 98 100 100 100
11 48 62 95 49 50 83 100 74 100 55 19 100 0 0 0 0 0 0 0 0 2 5 5 5 5 5 2 0 5 5 5 7 31 42 77 99 96 100 94 100 82 100
6 5 26 99 98 87 54 99 81 38 92 86 41 4 15 2 0 0 0 0 0 0 1 0 0 5 0 0 3 5 5 24 15 92 93 86 14 97 100 62 99 100 82
37 0 55 66 95 35 23 100 100 62 27 48 38 5 19 69 17 5 0 0 0 0 0 0 0 4 0 2 21 6 5 5 44 88 98 100 100 42 100 91 100 100 100
7 5 5 83 38 36 61 100 100 99 6 22 62 41 6 72 66 5 0 0 0 0 0 0 0 0 0 1 5 5 4 5 7 50 100 100 100 100 100 100 100 100 100
100 27 5 90 91 5 41 100 100 100 6 8 5 31 5 26 94 82 5 0 0 0 0 0 0 0 0 0 3 4 5 98 100 100 100 100 100 100 100 100 100 100 100
93 100 76 100 83 5 4 96 99 100 7 6 5 7 17 5 5 100 58 23 0 0 0 0 0 0 0 0 4 5 2 5 20 85 100 100 100 100 100 100 100 100 100
100 100 100 100 100 85 64 100 100 69 78 100 53 3 6 1 5 4 52 7 28 5 1 0 0 0 0 0 0 0 0 1 13 5 94 97 78 100 100 100 100 100 100
100 100 100 100 100 100 100 100 100 100 81 97 38 6 4 2 3 4 4 5 7 5 5 5 0 0 0 0 0 0 0 0 29 4 5 90 65 88 17 5 53 6 93
100 100 100 100 100 100 100 100 100 100 100 100 85 68 82 3 5 2 0 5 5 5 5 39 5 1 0 0 1 0 0 0 22 5 66 100 94 7 27 5 10 5 10
100 100 100 100 100 100 100 100 100 100 94 21 98 46 88 44 1 2 0 2 4 5 1 5 55 5 1 0 0 0 0 0 0 6 72 7 96 92 10 5 0 0 28
54 57 55 100 100 100 100 100 100 100 100 58 73 10 57 77 72 0 0 0 2 5 4 0 4 5 4 3 0 0 0 0 0 2 1 5 96 32 15 6 2 1 0
93 100 100 100 100 100 100 100 100 100 100 100 96 5 4 32 100 63 3 0 0 0 7 5 0 5 1 4 0 0 0 0 0 0 2 0 1 3 5 1 0 0 0
94 54 93 100 100 100 100 100 100 100 100 100 87 5 6 8 100 100 17 0 0 0 0 4 0 0 0 1 0 0 0 0 0 8 0 29 3 4 1 1 0 0 0
100 100 100 100 100 100 100 100 100 100 100 100 76 34 56 59 63 100 100 83 4 0 0 0 0 0 0 0 0 0 0 2 0 0 36 0 0 5 0 0 0 0 0
100 100 100 100 100 100 100 100 100 100 100 100 97 99 100 100 77 99 100 100 13 1 0 0 0 3 10 0 0 0 0 2 1 3 0 1 0 0 0 0 0 0 1

GFSMA_prec_cloud_093.txt.gz
Cloud_Cover
0 0 5 5 5 5 5 30 29 56 16 88 94 57 100 78 42 100 30 2 5 5 5 47 7 14 22 70 94 67 5 5 4 0 0 0 5 6 76 16 2 5 12
0 0 0 4 1 5 5 5 5 14 34 6 10 11 5 51 7 2 0 1 5 33 32 68 29 69 100 94 81 5 5 0 5 2 3 5 73 6 2 1 5 45 6
0 0 0 0 0 0 4 6 26 6 5 4 2 5 5 5 0 0 5 5 5 43 50 38 7 60 44 80 5 4 2 13 21 5 5 5 5 5 95 100 99 13 44
0 0 0 0 0 0 0 0 0 0 0 0 0 3 0 0 0 5 5 5 7 57 99 100 29 36 100 28 4 33 43 31 86 70 89 84 5 29 50 66 17 16 10
0 0 0 0 0 0 0 0 0 0 0 0 0 0 5 5 33 38 11 5 12 99 100 100 29 99 37 5 70 27 87 98 27 100 100 100 100 17 2 16 0 4 5
5 4 1 0 0 0 0 0 0 0 0 0 0 0 2 3 1 5 5 5 6 96 100 45 73 9 1 79 8 59 100 100 100 100 100 100 100 100 86 5 0 2 5
5 5 5 5 0 0 0 0 0 0 0 0 0 0 0 0 1 5 5 5 29 49 4 4 5 0 34 5 9 100 100 100 100 100 100 100 100 100 100 100 62 5 0
5 5 7 5 5 2 0 0 0 0 0 0 0 0 1 0 0 0 0 3 0 3 5 2 0 4 5 5 74 70 94 100 100 100 100 100 100 100 100 100 100 100 95
5 5 8 4 5 5 4 0 0 0 0 0 0 0 0 0 0 0 0 0 4 5 5 5 2 2 5 40 77 56 100 100 80 100 100 100 100 100 100 100 100 100 100
6 5 81 44 4 5 5 5 0 0 0 0 0 0 0 0 0 0 0 0 5 5 5 5 5 5 25 99 23 32 92 72 99 100 100 100 100 100 100 100 100 100 100
4 4 9 100 47 5 5 5 5 5 0 0 0 0 0 0 0 0 0 0 1 3 0 0 5 5 5 97 66 5 11 100 100 100 100 100 100 100 100 100 100 100 100
0 5 5 14 100 74 5 5 5 5 5 0 0 0 0 0 0 0 0 0 0 0 2 4 4 5 58 73 58 77 74 97 100 100 100 100 100 100 100 100 100 100 100
0 3 5 5 56 100 18 5 6 5 5 3 0 0 0 0 0 0 0 3 5 2 0 1 5 6 8 31 72 90 75 100 100 100 100 100 100 100 100 100 100 100 100
4 0 5 7 14 55 100 12 5 44 7 1 5 0 0 0 0 0 0 0 0 2 4 5 5 20 23 100 53 5 21 83 100 100 100 100 100 100 100 100 100 100 100
42 4 10 57 14 14 83 100 11 5 41 3 0 5 4 1 0 0 0 0 0 0 4 5 5 5 5 38 100 100 88 100 100 100 100 100 11 99 100 83 99 100 100
41 81 100 48 21 6 71 43 90 24 17 16 4 0 5 5 5 5 0 0 0 0 0 0 5 5 4 5 79 23 5 100 79 93 5 49 5 4 56 9 5 100 30
98 55 100 98 100 100 100 99 84 84 24 6 8 14 2 5 5 5 5 1 0 0 0 0 0 4 6 58 2 5 4 3 8 5 5 5 4 4 4 21 52 94 100
8 100 96 98 96 75 100 100 100 30 96 7 5 5 8 5 5 5 8 5 5 0 0 0 0 0 5 5 0 0 0 4 5 13 5 5 5 5 17 14 92 100 100
14 5 92 100 100 59 100 100 100 100 58 73 24 5 6 4 17 3 65 68 6 29 11 0 0 0 0 0 0 0 0 1 90 93 19 5 6 4 13 74 53 40 100
40 5 19 100 72 90 100 100 100 100 100 88 23 6 5 4 3 8 5 60 97 70 7 28 12 1 0 0 0 0 0 0 5 5 13 5 20 5 9 5 67 99 90
47 5 19 100 100 9 96 100 92 100 100 95 84 66 5 3 1 5 5 5 4 13 90 22 7 25 0 0 0 0 0 0 0 0 1 9 0 4 39 8 5 27 13
51 15 46 86 92 70 98 92 100 100 100 100 92 91 100 46 15 1 5 5 5 5 47 7 90 5 5 5 0 0 0 0 0 0 0 0 0 0 0 5 44 69 40
23 56 5 87 82 38 22 100 100 54 96 99 100 87 100 64 6 4 6 26 54 7 33 19 5 47 4 2 2 0 1 0 0 0 0 0 0 0 1 5 5 5 5
99 99 60 100 100 63 35 81 99 43 80 98 94 100 100 97 84 12 5 4 5 4 4 5 5 8 5 5 3 7 13 0 0 0 0 3 0 0 0 5 1 0 65
96 72 85 99 100 99 89 84 23 55 64 53 94 100 100 92 100 100 34 27 2 0 0 0 0 5 52 12 39 1 0 2 0 0 2 29 0 0 0 0 0 0 0
84 99 100 95 93 69 99 100 99 59 81 44 73 99 100 100 100 100 100 100 100 80 99 61 47 28 47 14 100 17 0 5 1 1 0 11 3 2 0 0 0 0 0

GFSMA_prec_cloud_096.txt.gz
Cloud_Cover
0 11 7 6 5 23 86 96 100 100 100 84 69 59 100 92 7 90 31 0 5 5 12 5 5 5 5 11 5 1 0 0 2 7 98 74 6 5 62 5 57 78 100
0 0 8 36 0 2 22 5 5 25 14 16 5 28 23 21 37 3 0 5 5 5 5 5 5 22 6 1 2 5 5 42 5 31 2 5 4 42 98 97 48 45 35
0 0 2 17 0 0 0 3 5 5 4 3 5 5 5 5 5 5 5 5 5 6 5 5 15 100 0 5 5 5 98 100 94 10 7 0 5 5 92 15 5 68 64
0 7 27 54 0 0 10 14 12 5 5 5 5 8 13 50 99 99 6 5 5 5 40 5 5 1 5 5 68 8 90 100 100 100 90 1 1 5 5 5 5 20 76
0 27 64 14 0 4 20 19 0 7 1 3 5 5 47 55 48 5 5 5 5 49 5 5 0 10 42 94 77 72 100 100 100 99 100 100 95 18 2 7 62 5 8
0 9 1 0 33 38 1 0 0 0 3 2 12 5 5 5 5 5 5 30 51 100 1 3 1 18 13 52 18 96 100 100 100 100 100 100 100 100 54 0 3 7 32
0 0 5 0 0 12 7 0 0 0 0 0 0 0 0 2 5 5 5 5 5 3 3 5 5 32 94 8 58 92 100 100 100 100 100 82 98 100 100 91 7 2 24
0 0 0 7 3 4 0 0 0 13 0 0 1 0 0 0 0 0 0 0 0 0 0 5 5 11 8 24 89 86 100 100 100 100 100 100 100 100 100 100 100 100 56
4 0 0 7 0 22 17 0 0 1 11 0 0 13 14 6 0 0 0 0 0 0 5 5 5 8 82 95 67 95 100 100 100 100 100 100 100 100 100 100 100 100 74
42 32 0 0 0 4 0 3 0 0 0 0 0 0 1 0 0 0 0 0 0 4 2 5 5 51 37 19 26 100 100 100 100 100 100 100 100 100 100 100 100 100 100
0 26 28 0 5 5 4 0 0 0 0 2 0 0 0 0 0 0 0 0 0 0 5 35 38 80 9 42 100 100 100 100 100 100 100 100 100 100 100 100 100 100 12
14 1 16 31 7 12 5 5 1 0 0 0 0 0 20 45 10 0 0 0 0 0 5 11 42 59 83 54 32 72 8 100 100 100 100 100 100 100 100 100 100 100 77
26 61 9 5 36 0 2 5 0 2 0 0 0 0 0 2 5 0 0 0 0 5 6 53 6 34 100 94 100 77 100 100 100 100 100 100 100 100 100 100 100 100 100
13 52 86 8 50 5 0 0 5 2 0 0 0 0 11 0 0 0 5 0 5 2 5 10 6 46 6 6 6 5 100 100 100 100 100 100 55 40 100 100 100 100 100
91 7 27 76 81 7 21 0 1 4 8 0 2 2 2 0 0 0 0 2 1 48 100 63 100 87 27 13 5 75 100 100 100 94 12 9 5 46 38 8 5 48 5
84 100 99 100 100 83 100 32 5 10 1 5 4 5 5 5 0 0 0 0 0 12 5 86 53 62 51 21 4 9 77 75 39 5 5 11 32 90 100 87 20 3 1
5 18 80 53 99 100 100 100 51 23 38 4 2 0 5 5 5 5 5 4 0 2 13 2 52 59 5 0 0 4 5 58 73 62 5 11 28 100 100 100 100 97 41
45 92 10 89 99 99 100 99 43 31 47 8 5 0 2 5 5 5 8 5 5 4 0 0 0 0 0 5 0 1 30 73 5 17 41 18 100 100 100 100 100 100 100
8 59 5 70 100 87 100 100 100 89 5 5 8 4 2 3 5 6 5 6 36 6 5 0 0 0 0 0 3 5 12 51 49 53 33 98 97 99 46 100 100 100 100
5 5 39 5 52 100 68 98 78 100 89 6 22 94 10 4 2 16 26 28 36 10 66 18 5 0 0 0 0 3 59 0 2 5 5 38 55 92 7 100 100 100 100
15 20 72 47 6 28 62 80 99 77 100 100 56 87 98 5 5 5 8 15 15 6 30 87 50 8 5 15 1 0 4 4 2 4 5 5 54 34 54 12 73 100 100
96 73 85 40 37 55 79 75 61 99 100 100 100 100 100 53 18 3 3 0 3 3 5 17 12 34 5 5 8 0 0 0 5 5 2 5 5 16 8 6 36 9 23
74 99 78 99 99 96 21 98 98 100 93 100 89 100 100 100 71 5 14 25 67 6 51 8 5 5 82 39 1 0 0 0 0 0 0 4 5 22 5 5 10 98 16
91 95 39 100 58 56 87 99 51 78 71 56 33 70 100 100 100 100 52 5 3 18 6 5 3 6 36 76 5 9 3 1 3 0 0 0 5 0 4 2 5 42 10
45 95 47 87 100 96 51 98 71 5 58 89 98 43 31 31 85 100 100 98 25 20 51 5 34 9 15 0 42 11 5 28 1 2 19 3 0 0 3 5 5 5 5
100 100 100 96 61 100 96 100 100 99 79 5 96 98 87 84 86 92 93 99 98 52 12 4 5 1 40 19 40 15 8 93 45 5 31 95 69 51 3 2 0 0 3

GFSMA_prec_cloud_102.txt.gz
Cloud_Cover
31 100 88 90 100 51 85 93 99 74 63 86 100 86 92 85 58 8 31 84 79 74 5 4 0 4 5 5 5 5 9 1 0 0 5 5 20 5 89 100 100 100 100
100 6 87 47 95 93 99 99 100 97 100 100 100 97 31 6 5 6 86 84 65 5 5 4 4 82 100 100 5 18 100 54 6 0 2 60 99 48 57 57 100 95 100
100 0 48 92 7 86 100 98 85 21 4 6 5 5 5 5 38 97 49 13 5 5 0 5 5 98 100 53 76 93 29 100 100 64 0 5 6 7 77 100 17 57 97
70 1 90 10 0 0 46 2 27 5 5 5 5 5 5 7 5 6 5 5 4 0 0 5 5 20 100 100 100 100 97 100 100 98 90 5 5 80 100 100 100 100 93
20 18 98 1 28 53 7 94 0 79 66 75 49 1 0 0 0 2 5 67 6 0 5 5 5 84 96 100 100 100 100 100 100 90 57 100 82 84 100 100 100 100 95
28 6 35 0 2 18 95 0 69 0 86 10 84 4 0 3 1 0 0 0 5 11 10 5 94 100 100 100 100 100 100 100 100 100 100 100 100 100 100 100 100 100 100
0 0 4 2 100 2 0 0 2 0 35 98 1 0 0 0 0 0 42 2 19 3 5 29 100 100 100 100 100 100 100 100 100 100 100 100 100 100 100 100 100 100 100
1 84 48 9 35 20 0 0 0 0 0 0 0 10 12 0 40 2 19 0 0 7 5 98 100 100 100 93 100 100 100 100 100 100 100 100 100 100 100 100 100 100 100
0 98 100 43 100 100 54 1 0 0 0 8 0 0 10 64 3 0 0 0 2 3 11 95 17 5 5 84 100 100 100 100 100 100 100 100 100 100 100 100 100 100 100
22 8 1 5 75 100 49 5 0 61 0 0 8 72 55 20 0 3 2 3 3 0 0 2 0 1 5 4 82 100 95 100 100 100 100 100 100 100 100 100 100 100 100
66 13 6 1 100 100 94 12 5 0 23 5 18 100 100 14 78 76 36 0 0 82 100 100 100 99 81 10 99 100 100 100 99 100 100 100 100 100 100 100 100 100 100
90 13 92 61 100 100 5 22 5 5 0 3 100 100 100 100 49 89 100 100 99 100 100 100 100 100 100 100 82 71 100 100 16 7 16 64 8 22 58 100 100 86 100
100 100 84 20 68 7 20 0 0 5 6 0 2 88 100 100 49 100 100 100 100 100 100 100 100 100 100 100 100 50 5 89 5 6 32 34 100 78 66 1 22 30 97
100 100 73 100 39 64 7 5 0 95 67 89 1 0 0 59 92 100 100 100 100 100 100 100 100 100 100 100 100 64 2 9 82 5 5 97 64 65 5 3 5 85 42
100 100 93 53 12 62 85 69 4 84 100 98 100 12 0 5 4 100 100 100 100 100 100 100 100 100 100 100 100 94 4 14 74 5 80 100 100 100 100 87 71 6 99
100 100 100 85 92 98 86 41 6 75 65 7 4 83 98 7 2 100 100 100 100 100 100 100 100 100 100 100 83 74 5 18 56 5 16 100 100 100 100 83 96 14 6
100 100 100 73 100 65 91 100 87 28 100 53 60 0 5 66 35 0 32 99 100 100 100 100 100 100 100 100 50 0 5 5 5 8 5 100 99 98 100 100 100 88 6
93 100 60 92 99 96 100 75 94 100 100 100 100 55 5 2 5 93 58 3 0 7 3 0 13 75 33 1 0 5 5 23 5 6 78 77 96 62 100 100 100 100 100
2 2 15 12 100 42 96 24 90 76 100 100 100 100 38 67 38 4 6 88 50 2 0 0 0 0 0 16 9 83 98 100 20 5 17 5 7 98 100 100 74 86 100
82 99 98 7 84 72 79 97 80 100 90 98 100 100 100 87 48 3 5 5 8 9 7 19 76 92 84 98 90 64 39 42 5 5 5 4 0 5 71 92 61 100 62
100 100 100 100 89 77 85 100 17 100 100 100 68 54 100 100 94 99 5 4 5 5 5 35 44 68 8 5 3 4 4 0 0 5 5 5 0 0 4 5 5 9 97
100 100 100 100 100 100 100 86 48 32 78 32 97 72 5 100 97 100 18 34 5 22 8 5 53 5 14 5 5 5 3 0 0 0 0 5 1 0 0 0 33 5 5
62 100 100 100 100 88 92 100 79 16 33 62 6 44 98 100 100 100 100 100 100 100 91 6 5 5 4 5 5 5 5 5 5 3 0 0 0 0 65 56 98 94 0
69 100 100 95 100 94 84 66 5 40 27 5 3 20 35 34 62 81 100 99 81 91 100 100 57 45 81 78 22 5 5 5 5 3 4 2 3 43 5 0 2 0 0
100 100 65 53 61 94 41 59 41 13 94 44 28 5 26 22 25 5 20 92 100 100 100 66 21 76 52 71 8 5 1 3 5 5 46 5 5 5 0 5 2 5 4
100 31 94 31 7 26 60 98 91 77 74 70 100 81 79 6 6 5 31 24 5 0 3 5 2 1 86 42 5 61 46 5 5 6 89 7 4 3 3 2 1 4 0

GFSMA_prec_cloud_105.txt.gz
Cloud_Cover
100 100 100 100 100 57 80 98 100 100 59 100 71 100 99 6 5 4 2 5 5 5 96 80 97 7 81 26 89 9 12 1 3 5 8 28 100 99 100 100 100 100 100
42 100 100 100 100 99 91 97 100 91 96 39 18 9 5 5 2 5 5 5 2 68 6 71 20 38 100 100 47 97 81 86 5 5 7 10 38 12 100 100 100 15 7
1 0 2 1 93 40 100 100 29 4 3 3 5 5 5 5 1 0 0 1 5 5 5 6 91 85 60 100 100 100 100 100 100 87 7 44 5 24 100 100 100 48 20
4 98 8 6 3 5 60 29 3 66 33 4 6 3 5 4 3 0 0 0 0 1 5 5 35 100 100 100 100 100 100 100 100 100 100 94 44 86 100 100 96 100 39
5 66 94 95 18 0 1 4 99 33 24 80 14 0 0 0 2 0 0 0 1 40 4 6 100 41 76 99 100 97 99 94 100 100 84 100 100 100 100 100 100 100 100
56 100 100 19 98 0 0 52 39 53 62 97 11 0 0 0 0 0 2 5 4 6 88 100 100 94 91 39 65 100 63 27 100 100 100 100 100 100 100 100 100 100 100
90 90 100 98 90 33 0 47 25 100 54 67 0 0 0 0 0 2 48 2 2 62 100 15 5 5 20 69 5 4 36 5 60 100 100 100 100 100 100 100 100 100 100
26 100 82 83 100 0 0 81 3 3 75 0 0 0 0 0 11 62 5 5 66 85 43 100 100 100 100 71 100 99 100 100 74 70 100 100 100 100 100 100 58 100 100
91 100 100 100 20 2 0 4 15 95 5 3 0 0 1 30 61 5 30 91 100 74 100 100 100 100 100 100 100 100 100 100 71 99 100 100 100 100 100 100 100 100 100
82 100 99 70 74 19 5 7 31 100 100 85 3 50 10 14 5 98 100 100 100 100 100 100 100 100 100 100 100 100 40 96 5 4 72 15 49 100 100 100 100 100 100
84 12 16 7 5 44 6 3 4 7 100 100 59 97 56 60 86 35 100 100 100 100 100 100 100 100 100 100 100 100 100 28 14 25 78 87 45 95 100 100 100 100 100
100 100 97 14 19 73 100 66 5 1 17 100 25 84 99 100 100 100 99 100 100 100 100 100 100 100 100 100 100 100 100 100 8 63 98 29 55 100 100 99 28 100 100
100 100 97 94 43 60 54 97 99 50 4 34 7 21 5 73 99 100 100 100 100 100 100 100 100 100 100 100 100 100 100 100 6 96 100 54 10 100 100 100 87 100 50
100 100 100 71 100 35 34 94 38 28 93 18 6 0 5 88 100 100 100 100 100 100 100 100 100 71 100 100 100 40 100 46 6 88 100 59 78 21 74 98 100 100 65
100 99 100 100 100 96 37 24 8 5 37 55 100 39 5 84 100 100 84 8 100 100 100 100 99 16 87 100 100 5 33 5 4 56 99 98 74 62 90 6 7 98 89
100 100 100 100 100 100 93 32 67 19 100 10 18 98 89 99 90 63 94 88 100 100 100 100 100 100 100 100 50 7 11 5 0 28 76 66 100 86 99 100 54 54 34
100 99 100 100 100 100 100 100 100 97 100 94 88 59 100 100 88 100 100 100 76 32 100 100 100 100 100 100 13 7 5 88 80 29 49 100 84 98 85 100 100 94 58
16 6 50 14 100 100 100 100 100 100 100 100 68 45 33 90 42 94 80 15 5 5 8 64 100 100 100 8 5 13 5 15 88 4 2 5 5 36 55 100 100 100 100
100 10 22 100 100 100 100 100 100 100 100 100 100 94 8 72 62 36 94 85 99 44 5 1 0 0 0 0 3 100 5 19 95 5 4 0 2 28 46 76 100 100 98
100 16 94 100 100 85 100 100 100 100 100 100 100 100 100 52 5 45 91 6 8 16 52 93 84 80 34 4 2 0 0 4 1 5 4 5 0 0 3 5 27 93 37
100 100 90 71 100 70 100 100 90 74 100 89 100 100 100 100 99 98 100 27 27 1 40 6 25 100 100 100 87 13 4 2 0 0 1 1 5 4 0 0 0 0 64
5 7 40 78 81 53 100 100 81 100 32 100 100 100 91 91 100 100 100 100 100 99 70 6 69 1 5 5 23 21 50 85 14 4 2 5 0 5 0 23 4 98 6
22 66 100 62 100 100 100 97 100 95 52 89 16 12 32 6 92 100 95 100 100 100 100 78 53 100 74 57 13 50 33 13 9 5 5 5 5 5 3 68 5 0 40
98 64 87 100 99 100 100 100 76 66 56 52 21 97 75 5 16 70 50 79 100 99 55 92 77 100 92 55 92 100 100 26 2 1 4 32 22 32 31 5 5 0 5
46 67 48 98 99 81 97 100 78 83 97 60 22 60 56 19 5 70 5 5 69 82 68 100 100 100 100 100 92 6 5 5 5 5 26 54 8 5 57 5 4 5 0
99 100 66 86 100 99 39 50 46 60 100 100 50 63 99 17 5 6 29 61 48 67 16 7 5 7 75 7 20 5 3 5 5 5 5 5 5 71 93 25 7 0 0

GFSMA_prec_cloud_108.txt.gz
Cloud_Cover
91 98 88 27 5 98 96 88 65 88 5 79 82 5 9 5 38 76 6 5 5 5 12 12 5 14 100 100 100 100 100 49 5 7 36 92 66 100 65 100 98 64 39
43 15 70 100 100 73 91 46 33 93 6 3 1 4 5 39 97 15 0 1 5 84 100 100 39 12 5 5 42 100 96 80 73 9 48 70 100 100 23 100 100 58 100
4 4 100 100 100 100 51 92 71 5 5 5 5 5 5 6 5 0 5 27 65 90 84 99 100 100 98 46 65 48 100 99 22 5 94 97 100 100 100 100 100 63 6
8 5 100 100 100 100 15 4 11 21 5 0 0 5 0 0 0 10 5 5 5 69 100 99 100 100 100 100 100 98 86 100 100 99 100 100 100 100 100 100 100 100 5
93 17 0 17 58 15 3 28 6 94 71 2 0 4 0 1 54 11 4 5 99 100 100 100 100 100 100 100 100 100 100 98 100 100 100 100 100 100 100 100 100 5 58
99 100 0 0 1 2 13 56 31 0 1 0 0 0 4 5 6 5 18 100 100 100 100 100 100 100 100 100 100 97 97 100 100 100 100 100 100 70 100 100 100 5 20
100 54 0 0 5 0 0 15 12 0 68 0 0 2 0 2 2 58 100 100 100 100 100 100 100 100 100 100 100 100 98 5 71 100 100 70 100 100 100 100 100 12 5
5 5 1 5 5 45 5 16 0 20 0 0 5 0 0 1 75 100 100 100 100 100 100 100 100 100 100 100 100 100 82 5 8 100 100 100 100 100 93 100 100 11 5
13 15 5 5 0 6 20 66 4 3 0 0 0 1 0 4 5 58 65 100 100 100 100 100 100 100 100 100 100 100 100 90 26 13 100 100 95 19 98 78 100 16 51
64 86 32 9 0 0 5 23 5 2 5 0 1 0 0 6 100 100 100 100 100 100 100 100 100 100 100 100 100 100 100 100 100 96 100 100 100 68 99 96 100 87 5
96 92 33 8 31 5 5 4 21 11 73 100 52 15 6 95 100 100 100 100 97 99 99 100 100 100 100 100 100 100 100 100 49 76 100 100 100 97 5 43 25 100 7
100 100 37 6 87 14 86 28 54 7 68 7 27 100 24 90 100 100 100 91 66 100 84 100 100 100 100 100 100 100 100 100 100 34 100 74 100 100 99 90 100 99 89
98 100 100 98 14 38 100 98 63 6 6 5 5 96 50 49 76 63 53 99 100 100 100 100 100 100 100 100 100 100 97 100 100 100 100 90 100 100 95 87 99 100 100
100 100 100 100 100 56 48 91 72 5 5 5 5 24 44 7 8 100 35 100 17 100 100 100 100 100 99 85 18 83 68 6 38 100 100 100 100 100 97 100 60 100 91
100 100 100 100 100 100 98 78 88 24 47 7 5 5 53 33 99 100 99 100 100 100 88 99 97 97 100 100 28 6 21 5 12 100 100 100 100 100 100 100 84 100 55
67 60 100 100 100 100 100 100 100 100 96 96 58 5 5 26 41 89 40 100 98 77 100 100 99 66 76 22 5 10 5 21 5 21 5 23 100 100 100 100 88 71 65
84 97 100 100 100 100 100 100 100 100 99 99 95 13 89 100 100 100 100 100 21 5 1 24 10 86 95 6 48 96 21 74 17 12 5 6 100 100 100 100 98 100 100
81 9 13 100 100 100 100 100 100 90 99 100 100 77 21 94 76 54 23 55 28 11 14 5 7 5 0 2 0 4 14 4 95 100 5 10 90 100 100 100 100 8 10
18 5 12 9 92 87 98 100 100 100 100 100 100 100 100 85 100 65 97 97 78 11 10 10 59 14 5 11 5 93 91 9 16 0 5 72 100 7 9 4 62 100 24
94 66 60 33 76 42 69 99 100 96 100 100 100 100 100 100 100 100 100 100 100 100 47 20 4 5 18 5 45 5 4 4 5 5 5 8 6 60 59 4 1 5 33
74 97 87 85 64 44 14 8 100 100 100 100 100 100 100 100 100 96 100 100 92 90 99 76 71 99 94 81 89 19 13 21 96 44 54 5 3 4 1 6 50 6 48
90 18 77 8 24 70 75 85 5 100 100 100 43 100 100 100 100 98 78 76 82 66 89 100 86 100 100 100 100 84 97 99 100 78 50 25 5 4 5 8 52 5 22
100 49 24 44 35 49 77 36 95 100 100 100 57 83 81 53 91 69 40 96 98 99 100 80 94 100 100 70 100 85 86 90 100 99 93 75 37 14 5 5 5 5 5
73 60 50 99 88 88 84 100 100 100 100 100 99 51 5 11 46 20 7 5 26 82 29 30 100 99 100 100 100 100 100 100 100 89 100 58 89 16 5 5 5 5 5
88 8 21 94 84 87 94 79 92 100 98 99 58 46 31 46 51 88 63 73 34 11 34 36 76 66 49 98 100 100 100 100 100 100 89 6 92 76 5 5 5 5 5
77 30 88 95 78 93 39 74 96 100 100 88 98 93 32 52 76 100 91 90 51 7 5 5 5 5 35 5 81 5 5 13 5 42 91 10 5 5 44 5 5 5 43

GFSMA_prec_cloud_111.txt.gz
Cloud_Cover
5 5 38 20 5 20 41 62 40 21 32 5 5 4 5 5 20 97 95 100 100 80 44 62 99 87 92 100 100 100 96 88 100 86 5 78 100 96 68 100 100 100 89
98 90 100 65 41 79 91 28 4 4 5 3 0 0 5 46 100 60 100 61 62 66 100 100 93 100 100 100 97 100 100 100 100 100 85 57 100 100 99 100 75 38 38
65 11 99 100 100 40 4 0 3 5 1 5 0 1 6 100 7 88 71 90 100 100 100 100 100 100 100 100 100 100 100 100 100 100 100 100 100 100 100 56 20 31 81
55 100 87 100 63 6 4 0 0 0 0 0 4 32 50 10 5 5 46 100 100 100 100 100 100 100 100 100 100 100 100 100 100 100 100 100 100 37 100 9 5 4 5
30 90 100 92 1 0 0 0 0 0 0 0 5 10 40 3 20 100 100 100 100 100 100 100 100 100 100 100 100 74 100 100 100 100 99 100 100 13 100 2 5 1 4
5 20 6 0 0 0 0 0 0 0 0 0 0 0 0 67 100 100 100 100 9 100 100 100 100 100 100 100 100 100 100 100 100 98 100 100 100 100 100 26 0 0 0
0 5 5 7 0 0 0 0 0 0 0 0 0 0 25 100 5 100 100 31 5 24 100 84 100 100 100 100 100 100 100 100 100 100 5 26 97 100 100 3 4 0 5
1 5 59 5 5 0 0 0 5 7 23 5 5 2 65 100 100 100 100 100 99 100 98 84 100 100 98 100 100 100 100 100 100 100 100 66 100 84 100 94 0 0 0
42 3 3 4 37 8 27 0 5 9 75 78 52 7 40 7 100 100 100 68 50 100 100 100 74 100 99 100 100 99 100 100 100 100 100 100 100 100 100 100 5 1 0
55 23 16 3 48 81 59 89 67 88 54 100 64 52 82 42 100 100 84 5 94 100 100 100 97 98 97 100 100 100 100 100 100 100 100 100 100 100 100 99 100 20 0
17 56 99 6 5 5 52 65 54 94 98 10 66 10 55 98 79 5 5 5 4 21 35 92 99 100 100 100 100 100 100 100 100 100 100 100 100 100 87 100 100 100 58
100 82 10 69 63 11 6 5 5 14 5 5 5 8 54 10 5 11 5 44 90 34 88 76 76 62 100 100 100 96 100 100 100 100 100 100 100 100 100 100 100 100 100
94 100 93 78 5 5 5 5 1 5 5 7 5 5 5 14 5 22 19 30 35 58 22 81 71 100 54 51 45 89 99 33 100 100 100 100 100 84 97 100 100 100 100
95 100 100 96 93 5 51 19 5 0 2 5 5 11 6 5 5 8 6 17 100 100 61 100 100 100 100 80 76 17 36 5 12 40 100 99 99 100 100 100 100 100 100
16 91 92 100 100 100 100 100 66 12 27 2 3 2 3 4 52 23 54 16 98 89 12 14 58 79 100 6 4 5 21 5 5 37 62 69 100 100 100 100 100 100 100
17 48 68 100 100 100 100 100 100 100 77 45 4 5 3 5 48 94 100 15 34 6 5 5 5 8 4 2 1 3 5 5 5 90 98 29 15 8 84 100 100 100 100
89 100 17 97 98 98 100 100 100 100 100 100 91 56 55 72 72 13 5 5 5 46 5 5 5 5 5 6 28 4 0 0 5 8 96 5 18 5 5 9 26 99 96
91 60 37 5 49 21 15 99 99 100 100 100 100 100 100 100 100 100 100 98 95 73 21 8 5 6 8 38 5 28 46 9 4 0 6 5 14 4 5 5 5 16 98
100 89 72 95 18 6 71 50 99 90 47 85 100 100 100 100 100 100 100 91 92 88 97 52 24 38 5 5 5 10 18 5 14 64 5 100 98 5 5 6 100 92 37
66 97 63 64 13 51 36 16 18 75 100 100 55 47 84 100 100 100 99 100 100 100 100 100 98 100 87 54 63 100 67 30 13 57 35 5 6 5 5 45 75 100 100
98 99 56 80 92 71 57 78 40 66 35 86 97 96 83 99 99 100 100 97 100 100 100 100 100 100 100 94 98 66 99 99 81 31 89 12 3 5 7 5 5 97 28
100 100 94 67 100 100 100 73 44 90 55 21 92 100 100 100 100 100 100 100 74 67 100 100 100 100 100 100 100 100 80 100 100 95 100 79 27 5 18 99 32 6 5
100 100 100 100 99 59 60 95 100 100 100 87 63 100 100 100 83 96 26 16 96 90 74 68 92 100 100 100 100 100 100 97 100 100 73 100 9 24 5 8 14 18 66
100 100 100 99 100 100 100 100 100 100 100 100 100 98 100 100 100 90 90 8 18 30 46 41 28 49 78 64 35 14 40 93 100 100 100 100 100 100 52 22 5 5 5
100 100 100 100 100 100 100 100 100 100 100 100 100 100 100 100 96 17 16 5 14 13 5 10 5 5 12 5 5 5 10 5 5 14 19 60 80 14 12 14 53 90 5
96 100 100 61 100 100 100 100 100 89 90 83 91 100 78 100 100 98 95 51 92 61 12 5 86 52 28 43 38 5 5 5 5 5 16 62 63 88 87 7 5 27 5

GFSMA_prec_cloud_114.txt.gz
Cloud_Cover
3 4 5 10 12 8 88 87 5 5 5 5 5 73 5 65 5 11 42 100 100 100 100 100 99 89 100 96 100 100 100 100 100 96 88 100 100 100 78 85 95 100 100
42 46 8 4 5 59 33 5 5 1 5 5 5 5 5 5 5 18 98 100 100 100 100 100 10 5 85 100 100 100 100 100 100 53 73 98 100 100 10 5 56 100 67
80 68 96 61 8 14 2 0 0 0 4 5 1 0 5 5 54 100 100 100 100 100 100 92 44 99 100 100 100 100 100 100 100 100 94 30 95 6 93 52 5 5 5
81 100 39 38 5 2 0 0 0 0 0 0 0 0 5 42 100 100 31 65 99 23 99 100 100 97 100 100 100 100 88 75 82 100 10 12 100 23 38 85 1 0 1
84 18 2 0 5 0 0 0 0 0 0 0 0 5 75 100 100 100 49 57 99 8 76 100 100 100 57 100 100 100 100 100 100 86 6 84 100 34 5 5 2 3 4
5 4 0 0 1 0 0 0 1 2 0 0 5 88 33 87 38 12 9 12 78 46 94 100 100 96 98 95 100 100 100 100 100 100 46 84 100 85 4 0 2 0 0
1 0 0 0 0 0 0 0 5 5 5 5 5 7 100 100 37 100 100 100 100 100 100 100 100 100 99 100 100 100 100 100 100 100 100 100 100 75 5 0 0 0 0
5 0 0 0 0 4 0 3 2 5 20 48 31 100 100 100 98 84 63 99 100 99 76 94 100 100 100 100 100 100 100 100 100 100 100 100 100 100 100 20 6 8 0
5 5 0 0 2 5 5 52 72 86 96 75 62 100 100 23 5 26 44 92 94 70 97 100 100 96 100 100 100 100 100 100 100 100 100 100 100 100 100 100 100 20 0
5 5 5 5 6 9 23 9 5 27 69 29 5 17 31 65 54 11 13 21 10 27 81 98 97 44 98 98 99 99 100 100 100 100 99 100 100 100 100 100 100 85 10
5 5 5 4 1 5 5 5 5 5 5 5 6 5 6 28 30 5 5 5 5 100 100 56 85 28 92 100 32 85 60 100 100 100 99 100 100 100 100 100 100 100 100
13 3 0 0 0 2 5 3 5 5 5 5 5 5 5 5 31 56 95 23 75 5 37 7 7 12 89 52 6 5 5 20 93 100 100 100 100 100 100 100 100 97 100
100 64 17 5 0 0 4 3 2 0 2 4 5 5 5 29 6 7 14 13 32 10 5 16 5 5 56 5 12 21 23 67 32 35 25 93 100 100 100 100 100 100 100
82 100 100 100 98 9 1 4 5 5 4 5 5 57 14 7 91 5 60 5 5 5 5 5 58 95 6 5 5 5 5 10 5 14 74 77 76 100 97 85 100 100 100
24 89 100 100 100 100 88 97 28 5 5 0 2 2 7 22 5 5 5 9 8 1 5 5 5 5 5 2 2 1 0 1 5 5 12 13 84 100 100 99 84 100 100
99 40 23 94 100 100 77 18 5 5 5 5 5 5 8 32 13 7 6 4 5 5 9 5 10 40 11 5 5 15 6 5 5 5 74 100 20 11 34 82 67 75 80
5 85 29 45 18 25 50 54 99 76 81 78 45 51 78 100 100 100 100 99 87 42 4 6 5 9 24 34 8 5 5 5 44 28 5 5 8 5 5 11 100 100 73
99 5 27 12 28 58 79 86 84 76 89 100 98 5 8 99 70 85 100 46 100 100 100 83 11 4 5 33 93 70 93 100 100 49 5 5 5 5 4 5 61 96 51
12 8 5 7 99 97 96 44 98 98 96 99 52 39 90 99 88 100 100 76 40 98 100 100 100 100 89 94 17 89 77 81 100 100 95 100 94 5 6 19 94 30 5
97 22 53 1 1 17 78 87 54 77 100 93 74 54 56 62 88 89 100 100 100 55 100 100 97 100 75 100 100 100 100 100 100 100 100 100 99 44 90 35 45 61 16
88 93 99 97 25 24 37 5 34 43 5 37 94 77 68 56 96 46 42 24 10 50 86 95 100 91 86 95 100 100 100 100 84 92 100 100 100 100 100 100 100 54 54
100 100 100 100 100 100 100 41 77 60 100 30 6 21 25 100 62 93 96 84 33 86 72 15 20 16 29 86 24 6 70 13 79 35 91 5 29 100 100 100 100 100 100
100 100 100 100 100 100 100 99 89 88 100 49 78 63 100 100 88 65 100 100 98 74 60 43 34 36 72 20 14 5 6 5 15 5 12 5 5 8 5 8 19 3 4
100 100 100 100 100 100 100 100 100 100 100 100 100 99 100 100 100 100 100 100 100 98 9 5 5 14 5 5 5 5 7 50 60 5 30 11 5 78 71 5 3 1 5
100 100 100 100 100 100 100 99 72 100 100 100 100 100 95 100 100 100 100 100 100 81 45 29 11 6 32 5 5 5 26 55 73 94 75 50 80 78 6 5 5 7 5
80 100 100 100 100 100 100 84 100 100 100 100 100 100 100 100 98 100 97 76 95 71 94 98 72 95 80 6 7 5 5 5 36 7 68 67 14 59 18 5 6 5 18